ECMWFFLT1_700_temp_000.txt.gz
Temp
17 17 17 17 16 15 15 14 14 14 14 14 14 14 14 14 14 14 13 13 14 13 13 13 13 13 12 12 12 12 12 12 11 11 11 11 11 11 11 10 10 10 10 10 10 10 9 10 10 10 10 10 10 10 10 9 9 9 8 8 8 8 7
18 18 17 17 16 16 15 14 14 14 14 14 14 14 14 14 14 14 14 13 13 13 13 13 13 13 12 12 12 12 12 12 11 11 11 11 11 11 11 10 10 10 10 10 10 10 9 9 10 10 10 10 10 10 9 9 9 9 8 8 8 7 7
18 18 17 17 17 16 15 15 14 14 14 14 14 14 14 14 14 14 14 13 13 13 13 13 13 13 13 12 12 12 12 12 12 11 11 11 10 10 10 10 10 10 10 10 10 10 9 9 9 9 10 10 10 10 9 9 9 9 8 8 8 7 7
18 18 18 17 17 16 16 15 14 14 14 14 14 14 13 13 14 14 13 13 13 13 13 13 13 13 13 13 12 12 12 12 11 11 11 10 10 10 10 10 10 10 10 10 10 10 9 9 9 9 9 10 10 9 9 9 9 9 8 8 7 7 7
19 18 18 17 17 16 16 15 15 14 14 14 14 14 14 13 13 13 13 13 13 13 13 13 13 13 13 12 12 12 12 12 11 11 11 11 10 10 10 10 10 9 9 9 9 9 9 9 9 9 9 9 9 9 9 9 9 8 8 8 7 7 7
19 18 18 17 17 17 16 16 15 15 14 14 14 14 14 14 13 13 13 13 13 13 13 12 12 12 12 12 12 12 12 12 11 11 11 11 11 10 10 10 10 9 9 9 9 9 9 9 9 9 9 9 9 9 9 8 8 8 8 8 7 7 7
19 18 18 18 18 17 17 16 15 15 15 14 14 14 14 14 14 13 13 13 13 13 13 13 13 12 12 12 12 12 12 12 12 11 11 11 11 10 10 10 10 9 9 9 9 9 9 8 9 9 9 9 9 9 8 8 8 8 8 7 7 7 7
19 19 18 18 18 18 17 17 16 15 15 15 14 14 14 14 14 14 14 13 13 13 13 13 13 13 12 12 12 12 12 12 12 11 11 11 10 10 10 10 10 9 9 8 8 8 8 8 8 8 8 9 9 8 8 8 8 8 8 7 7 7 7
19 19 18 18 18 18 17 17 16 15 15 15 14 14 14 14 14 14 14 14 14 14 13 13 13 13 12 12 12 12 12 12 11 11 11 11 10 10 10 10 10 9 9 8 8 8 8 8 8 8 8 9 8 8 8 7 7 7 7 7 7 7 6
19 19 18 18 18 18 17 17 16 16 15 15 15 14 14 14 14 14 14 14 14 14 14 13 13 13 13 12 12 12 12 11 11 11 11 11 11 10 10 9 9 9 9 8 8 8 7 8 8 8 8 8 8 8 8 7 7 7 7 7 6 6 6
19 19 18 18 18 18 17 17 17 16 16 16 15 15 15 15 15 15 14 14 14 14 14 13 13 13 13 12 12 12 11 11 11 11 11 11 11 10 9 9 8 9 9 8 8 8 7 7 8 8 8 8 8 7 7 7 6 6 6 6 6 5 5
19 18 18 18 18 18 17 17 17 17 17 16 16 15 15 15 15 15 14 14 14 14 14 13 13 13 13 12 12 11 11 11 10 11 11 11 10 9 9 8 8 8 8 8 8 8 7 7 7 8 8 8 8 7 7 6 6 6 6 5 5 5 5
19 18 18 18 18 18 17 17 17 17 17 16 16 16 16 16 15 15 15 14 14 14 14 14 13 13 13 12 12 11 10 10 10 10 10 9 9 9 8 8 8 7 7 7 7 7 7 7 7 7 8 8 7 7 6 6 6 6 5 5 5 5 5
19 18 18 18 18 18 18 17 17 17 16 16 16 16 16 16 16 15 15 15 14 14 14 14 14 13 13 13 12 11 11 11 11 10 9 9 8 8 8 8 7 7 7 7 7 7 7 7 7 7 7 8 7 6 6 6 5 5 5 5 4 4 4
19 18 18 18 18 18 17 17 17 17 16 16 16 16 16 16 15 15 15 15 15 14 14 14 14 13 13 13 12 12 12 11 11 10 9 8 7 7 7 8 7 7 7 6 6 6 6 7 7 7 7 7 7 6 5 5 5 5 4 4 4 4 4
19 18 18 18 18 18 17 17 17 17 16 16 16 16 16 15 15 15 15 15 14 14 14 14 13 13 13 13 13 12 12 12 11 10 10 9 7 6 7 7 6 6 6 6 6 6 6 6 6 6 6 7 6 5 5 5 5 4 4 4 4 4 3
19 18 18 18 18 17 17 17 16 16 16 16 16 16 15 15 15 15 14 14 14 14 14 13 13 13 13 13 12 12 12 12 12 11 10 9 8 7 7 7 6 6 6 6 6 6 6 6 5 5 6 6 6 5 5 5 4 4 4 4 3 3 3
19 18 18 18 17 17 17 16 16 16 15 15 15 15 15 15 15 14 14 14 14 14 13 13 13 13 13 12 12 12 12 12 11 11 10 9 8 7 6 7 7 7 6 6 6 6 6 5 5 5 5 6 5 5 5 5 4 4 4 4 3 3 3
19 18 18 18 17 17 17 16 16 16 15 15 15 15 15 15 15 14 14 14 14 14 13 13 13 13 13 12 12 12 12 12 11 11 10 8 8 8 8 8 8 7 6 6 6 5 5 5 5 5 5 5 5 5 5 4 4 4 4 4 3 3 3
19 18 18 17 17 17 16 16 16 16 15 15 15 15 15 15 14 14 14 14 14 13 13 13 13 13 13 12 12 12 12 11 11 11 10 8 8 9 8 8 8 7 6 6 5 5 4 4 4 4 5 5 5 4 4 4 4 4 4 3 3 3 3
18 18 17 17 17 17 16 16 16 15 15 15 15 14 14 14 14 14 14 14 14 14 14 13 13 13 12 12 12 12 12 11 11 10 9 8 9 9 8 7 7 6 6 6 5 5 4 3 3 4 4 4 4 4 4 4 4 4 4 3 3 3 3
17 17 17 17 17 16 16 16 15 15 14 14 14 14 14 14 14 14 14 14 14 14 14 14 13 13 12 12 12 12 12 11 10 10 9 8 8 8 7 7 6 6 6 5 5 4 3 2 3 4 4 4 4 4 3 3 3 3 3 3 3 3 3
16 16 16 17 16 16 16 15 15 14 14 14 14 14 14 14 14 14 14 14 14 14 14 14 13 13 12 12 12 12 11 10 9 9 8 7 7 7 7 6 6 6 7 6 5 4 3 2 3 4 4 4 4 3 3 3 3 3 3 3 3 3 3
16 16 16 16 16 15 15 15 14 14 14 14 13 13 13 14 14 14 14 14 14 14 14 14 13 13 12 12 12 11 11 10 9 8 7 7 7 7 7 6 6 6 6 6 5 3 3 3 3 3 4 4 3 3 3 2 2 3 3 3 3 3 2
16 16 16 16 15 15 14 14 14 13 13 13 13 13 13 13 13 13 13 13 13 13 13 13 13 13 13 12 12 11 11 10 9 8 7 7 7 7 7 6 6 5 5 5 4 3 3 3 3 4 4 3 3 3 2 2 2 2 2 3 3 2 2
15 15 15 15 14 14 14 13 13 13 13 12 12 12 12 12 12 12 12 12 12 12 12 12 12 12 12 12 11 11 10 10 9 9 8 8 8 8 7 6 5 4 4 4 4 4 4 4 4 4 4 3 3 3 2 3 2 2 2 2 2 2 2
14 15 14 14 14 13 13 13 12 12 12 12 12 12 12 12 12 11 11 11 12 12 12 12 12 12 12 11 11 10 10 10 10 9 9 8 7 7 7 5 4 4 4 4 4 4 4 4 4 4 4 4 4 3 3 2 2 2 2 2 2 2 2
14 14 14 14 13 13 13 12 12 12 12 12 11 12 12 12 11 11 11 11 11 11 11 12 12 11 11 10 10 10 9 9 9 8 8 7 7 7 6 6 4 4 3 3 4 4 4 4 4 4 4 4 4 3 2 2 2 2 2 2 2 2 2
13 13 13 13 13 13 12 12 12 12 11 11 11 11 11 11 11 11 11 11 11 11 11 11 11 11 10 10 10 9 9 9 8 8 7 7 6 6 6 5 5 4 4 4 4 4 4 4 4 4 3 3 3 2 2 2 2 2 2 2 2 2 2
13 13 13 13 13 12 12 12 12 12 11 10 10 10 10 10 10 11 11 11 11 10 10 10 10 10 10 9 9 9 9 9 8 8 7 7 6 6 6 5 4 4 4 4 4 4 4 3 3 3 3 3 2 2 2 2 2 2 2 2 2 2 2
13 13 13 13 13 12 12 12 12 11 11 10 10 10 10 10 10 11 11 11 10 10 10 9 9 9 9 9 9 8 8 8 8 7 7 7 6 6 6 6 5 4 4 4 4 4 4 4 3 3 3 3 3 2 2 2 2 2 2 2 2 2 2
13 13 13 13 13 13 12 12 11 11 11 10 10 10 10 10 10 10 11 11 10 9 9 9 9 9 9 9 8 8 8 8 7 7 6 6 6 6 6 5 5 4 4 4 4 4 4 4 4 4 4 4 3 2 2 2 2 2 2 2 2 2 2
12 12 13 13 13 13 12 12 11 11 11 10 10 10 10 10 9 9 10 10 10 9 9 9 9 8 8 8 8 8 8 8 7 7 6 6 5 5 5 5 5 5 4 4 4 5 4 4 4 5 5 4 3 2 2 2 1 1 2 1 1 1 1
12 12 12 12 13 12 12 12 11 11 11 11 10 10 10 9 10 10 10 10 9 9 9 8 8 8 8 8 7 7 7 7 7 6 6 6 5 5 5 5 5 5 5 5 5 4 4 5 5 5 4 3 2 2 2 1 1 1 1 1 1 1 1
12 12 11 11 12 12 11 11 11 10 10 10 10 10 9 10 10 10 9 9 9 8 8 8 8 8 7 7 7 7 6 6 6 6 6 6 5 5 5 5 5 5 5 5 5 5 5 5 5 4 3 3 2 2 1 1 1 1 1 1 1 1 1
11 11 10 11 11 11 10 10 10 10 10 10 9 9 9 9 9 9 9 8 8 8 8 7 7 7 7 7 7 6 6 6 6 5 5 5 5 5 5 5 5 5 5 5 5 5 5 5 4 3 2 2 2 1 1 1 1 1 1 1 1 1 1
10 10 10 10 10 10 10 10 10 10 9 9 9 9 9 8 8 8 8 8 8 7 7 6 7 7 7 7 7 6 5 5 5 5 5 4 4 4 5 5 5 5 5 5 5 5 4 4 3 3 2 2 2 2 1 1 1 1 1 1 1 1 1
10 10 10 10 10 9 9 10 9 9 8 8 8 8 8 8 7 7 7 7 7 7 6 6 7 7 7 7 6 5 5 5 5 4 4 4 4 4 4 5 5 5 4 4 4 4 4 3 3 2 2 2 2 2 1 1 1 1 1 1 0 1 1

ECMWFFLT1_700_temp_003.txt.gz
Temp
17 17 17 17 16 16 16 15 15 15 15 15 15 15 15 14 14 14 14 14 14 14 14 13 13 13 13 12 12 12 12 12 11 11 11 11 11 11 11 11 11 11 11 11 11 11 11 11 11 10 10 10 10 10 10 10 10 10 10 9 9 9 9
18 18 17 17 16 16 16 15 15 15 15 14 14 14 14 14 14 14 14 14 14 14 14 13 13 13 13 12 12 12 12 12 11 11 11 11 11 11 11 11 11 11 11 11 11 11 11 10 10 10 10 10 10 10 10 10 10 10 10 9 9 9 9
19 18 18 17 17 16 16 16 15 15 15 14 14 14 14 14 14 14 14 14 14 14 14 13 13 13 13 13 12 12 12 12 12 11 11 11 11 11 11 11 11 11 11 11 11 11 10 10 10 10 10 10 10 10 10 10 9 10 10 9 9 9 8
19 19 18 18 17 17 16 16 16 15 15 15 14 14 14 14 14 14 14 14 14 14 14 13 13 13 13 13 13 12 12 12 12 11 11 11 11 11 11 11 11 11 11 11 11 11 10 10 10 10 10 10 10 10 10 9 9 9 9 9 9 8 8
19 19 19 18 18 17 17 16 16 16 15 15 14 14 14 14 14 14 14 14 14 14 13 13 13 13 13 13 13 12 12 12 12 11 11 11 11 11 11 11 11 10 10 10 10 10 10 10 9 9 9 9 9 9 9 9 9 9 9 9 8 8 8
19 19 19 19 18 18 17 17 16 16 15 15 15 14 14 14 14 14 13 14 14 14 13 13 13 13 13 13 13 13 12 12 12 11 11 11 11 11 11 10 10 10 10 10 10 10 9 9 9 9 8 8 9 9 9 9 9 9 9 9 8 8 7
19 19 19 19 18 18 17 17 17 16 16 15 15 14 14 14 14 14 14 13 14 14 13 13 13 13 13 13 13 13 12 12 11 11 11 11 10 10 10 9 9 9 9 9 9 9 9 8 8 8 8 8 8 8 8 9 9 9 9 8 8 7 7
19 19 19 19 18 18 18 18 18 17 16 15 15 14 14 14 14 14 14 14 14 13 13 13 13 13 13 13 12 12 12 12 11 11 11 10 10 10 9 9 9 9 8 8 8 8 8 7 7 8 7 7 8 8 8 8 8 8 8 8 7 7 7
19 19 19 19 19 18 18 18 18 17 16 16 15 15 14 14 14 14 14 14 14 13 13 13 13 13 13 13 12 12 12 11 11 11 10 10 10 10 9 9 8 8 8 8 7 7 7 7 7 7 7 7 7 8 8 8 8 8 8 8 7 7 7
19 19 19 19 18 18 18 18 18 17 17 16 16 15 15 14 14 14 14 14 14 14 13 13 13 13 13 13 12 12 12 11 11 10 10 10 10 10 9 9 9 8 8 8 7 7 7 7 7 7 6 7 7 7 7 8 8 8 8 7 7 7 6
19 19 19 19 18 18 18 18 18 17 17 16 16 16 15 15 14 14 14 14 14 14 14 13 13 13 13 13 12 12 12 11 11 10 10 10 10 10 9 9 9 8 8 8 7 7 7 7 7 7 6 6 6 7 7 7 7 7 7 7 7 6 6
19 19 19 19 18 18 18 18 18 18 17 17 17 16 16 15 14 14 14 14 14 14 14 14 13 13 13 13 12 12 12 11 11 10 10 10 10 9 9 9 9 8 7 7 7 7 7 6 6 6 6 6 6 6 7 7 7 7 6 6 6 6 6
19 19 19 19 18 18 18 18 18 18 17 17 17 17 16 15 15 15 14 14 14 14 14 14 13 13 13 13 13 13 13 12 11 10 10 10 10 9 9 8 8 7 7 7 7 6 6 5 5 5 6 6 6 6 6 6 6 6 6 6 6 5 5
19 19 19 18 18 18 18 18 18 18 17 17 17 17 16 16 15 15 14 14 14 14 14 14 14 14 13 13 13 13 13 12 11 10 10 10 10 9 8 8 8 7 6 6 6 5 5 4 4 5 5 6 6 5 6 6 6 5 5 5 5 5 5
19 19 19 18 18 18 18 18 18 18 17 17 17 17 16 16 15 15 15 15 14 14 14 14 14 14 14 13 13 13 13 13 12 11 11 10 10 9 8 8 8 7 6 6 6 5 6 5 5 5 5 5 6 5 5 6 5 5 5 5 5 5 4
19 19 19 19 18 18 19 18 18 18 17 17 17 17 16 16 16 15 15 15 15 15 14 14 14 14 14 14 13 13 13 13 13 12 11 11 10 10 9 9 8 7 7 7 7 6 6 6 6 5 5 5 5 5 5 5 5 5 5 5 4 4 4
19 19 19 19 18 18 19 18 18 18 17 17 17 16 16 16 16 16 15 15 15 15 15 14 14 14 14 14 14 13 13 13 13 12 12 11 10 9 9 9 8 7 7 7 7 6 6 6 5 5 5 5 5 5 4 5 5 4 4 4 4 4 4
19 19 19 19 18 19 19 18 18 18 17 17 17 16 16 16 15 15 15 15 15 15 14 14 14 14 14 14 13 13 13 13 13 12 12 11 10 9 8 8 8 7 7 7 7 6 6 6 5 5 4 4 4 4 4 4 4 4 4 4 4 4 4
19 19 19 19 19 19 18 18 18 17 17 17 16 16 16 16 15 15 15 15 15 15 14 14 14 14 14 14 13 13 13 13 12 12 10 10 9 9 8 8 8 8 8 8 8 7 7 5 5 4 4 4 4 4 4 3 3 3 3 4 4 3 3
19 19 19 19 19 19 18 18 17 17 17 17 16 16 16 16 15 15 15 15 15 15 14 14 14 14 14 13 13 13 13 12 12 11 10 10 10 9 9 9 8 8 8 8 8 8 7 6 5 4 4 4 4 4 4 4 3 3 3 3 3 3 3
19 19 19 19 19 18 17 17 17 17 17 16 16 16 15 15 15 15 15 15 15 14 14 14 14 14 14 13 13 13 13 13 13 12 12 11 10 10 9 9 8 9 9 8 8 8 7 7 6 5 4 4 4 4 4 4 3 2 2 3 3 3 3
19 19 19 19 19 18 17 16 16 16 16 16 16 15 15 15 15 15 14 14 14 14 14 14 14 14 14 13 13 13 13 13 13 12 12 11 10 10 10 9 9 9 9 8 8 7 7 6 6 5 5 4 4 4 4 3 3 2 3 3 3 3 4
18 18 19 18 18 17 17 16 16 16 16 16 15 15 15 15 15 14 14 14 14 14 14 14 13 13 13 13 13 13 13 13 13 12 12 12 11 11 10 9 9 9 9 8 8 7 6 5 5 5 5 4 3 4 3 3 2 2 3 3 3 3 4
18 18 18 18 17 17 16 16 16 16 16 16 15 15 15 15 14 14 14 14 14 14 14 13 13 13 13 13 13 12 12 12 12 12 12 12 11 11 10 10 9 9 9 8 7 6 6 5 5 4 4 3 3 3 3 3 2 3 3 3 3 3 3
18 18 17 17 17 17 16 16 16 16 16 15 15 15 15 15 14 14 14 14 14 14 13 12 12 12 12 12 12 12 12 12 12 12 11 11 11 10 10 10 9 9 8 8 7 6 6 6 5 4 3 3 3 3 3 3 3 3 3 3 3 3 3
18 17 17 16 16 16 16 16 16 15 15 15 15 15 15 14 14 14 14 14 14 13 13 12 12 12 12 12 12 12 11 11 11 11 10 10 10 10 10 9 8 8 8 7 7 6 6 6 5 4 3 3 3 3 3 3 3 3 3 3 3 3 3
17 16 16 16 15 16 16 15 15 15 15 15 15 15 14 14 14 14 14 13 13 13 12 12 12 12 12 12 11 11 11 10 10 10 10 10 9 9 9 8 8 8 8 7 7 6 6 6 5 4 3 3 3 3 3 3 3 3 3 3 4 3 3
15 15 15 15 15 15 15 14 14 14 15 15 14 14 14 14 14 14 13 13 13 13 12 12 11 11 11 11 11 10 10 10 10 9 9 9 9 9 8 8 7 7 7 7 6 6 6 5 5 4 4 4 4 4 3 3 3 3 3 3 3 3 3
14 14 14 14 15 14 14 13 14 14 14 14 14 14 14 14 13 13 13 13 13 12 12 11 11 11 11 11 10 10 10 9 9 9 9 9 9 8 8 7 7 7 7 6 6 6 6 5 4 4 4 4 4 4 4 4 4 4 3 3 2 2 2
13 14 14 14 15 14 14 13 13 14 14 14 14 13 13 13 13 13 13 13 13 12 12 11 11 11 11 10 11 10 10 9 9 9 9 8 8 8 7 7 7 7 6 6 6 6 5 5 4 4 4 4 4 4 4 4 4 4 3 2 2 2 2
13 13 14 14 14 14 13 13 13 13 13 13 13 13 13 13 13 13 13 13 12 12 11 11 10 10 10 10 10 10 9 9 9 8 8 8 7 7 6 6 7 7 6 6 6 5 5 4 4 4 4 4 4 4 4 4 4 3 3 2 2 2 2
13 13 13 13 13 13 13 13 13 13 13 13 13 13 13 13 13 13 12 12 12 11 10 10 10 10 10 10 9 9 8 8 8 8 7 7 6 6 6 6 6 6 6 6 5 5 5 5 4 4 4 4 4 4 4 4 4 3 2 2 2 2 2
12 13 13 13 13 13 13 13 13 13 13 13 13 13 13 13 13 12 12 11 11 10 10 10 10 10 9 9 8 8 8 8 7 7 7 6 6 6 6 6 6 6 6 5 5 5 5 5 4 4 4 4 4 4 4 4 3 3 2 2 2 2 2
12 12 13 13 13 13 13 13 13 13 13 13 13 13 13 12 12 12 11 11 10 10 10 10 9 9 9 8 8 8 8 7 7 7 7 6 6 5 6 6 6 6 5 5 5 5 5 5 4 4 4 4 4 4 4 4 3 3 2 2 2 2 1
12 12 12 13 13 13 13 13 12 12 12 13 13 12 12 12 11 11 11 11 10 10 10 10 9 9 8 8 8 7 7 7 6 6 6 6 5 5 6 6 5 5 5 5 5 5 4 4 4 4 4 4 4 4 4 4 3 3 3 2 2 1 1
12 12 12 12 12 13 12 12 12 12 12 12 12 12 11 11 11 11 11 10 10 10 9 9 8 8 8 8 8 7 7 6 7 7 6 6 5 5 6 5 5 5 5 5 5 5 4 4 4 4 4 4 4 4 4 4 3 3 3 2 1 1 1
11 12 11 11 12 12 12 12 12 12 12 11 11 11 10 10 10 10 10 10 10 9 9 8 8 8 8 7 7 7 7 7 7 7 6 6 5 5 5 5 5 5 5 5 5 5 4 4 4 4 4 4 4 4 4 4 3 3 2 2 1 1 1
11 11 11 11 11 11 11 11 11 11 11 10 10 10 10 10 10 10 9 9 9 8 8 8 8 7 7 7 7 7 7 7 7 6 6 6 5 5 5 5 5 5 5 5 5 4 4 4 4 4 4 4 4 3 3 3 3 3 2 1 1 1 1

ECMWFFLT1_700_temp_006.txt.gz
Temp
18 18 18 17 17 16 16 16 16 16 16 16 16 15 15 15 15 15 14 14 14 14 14 14 13 13 13 13 12 12 12 12 12 12 12 11 11 11 11 11 11 11 11 11 11 11 11 11 11 10 10 10 10 10 10 10 10 10 10 10 10 10 9
19 18 18 18 18 17 17 16 16 16 16 16 16 15 15 15 15 15 15 14 14 14 14 14 14 13 13 13 12 12 12 12 12 12 12 12 12 12 11 11 11 11 11 11 11 11 11 11 10 10 10 10 10 10 9 9 9 9 9 9 9 9 9
19 19 19 18 18 18 17 17 16 16 16 16 16 16 15 15 15 15 15 15 14 14 14 14 14 14 13 13 13 13 12 12 12 12 12 12 12 11 11 11 11 11 11 11 11 11 10 10 10 10 10 9 9 9 9 9 9 9 9 9 9 9 9
19 19 19 19 18 18 18 17 17 17 16 16 16 16 15 15 15 15 15 15 14 14 14 14 14 14 13 13 13 13 13 12 12 12 12 12 11 11 11 11 11 11 11 10 10 10 10 10 10 9 9 9 9 9 8 8 8 9 9 9 9 9 9
19 19 19 19 19 18 18 18 17 17 16 16 16 16 15 15 15 15 15 15 14 14 14 14 14 14 14 13 13 13 13 12 12 12 12 12 11 11 11 11 11 11 10 10 10 10 10 10 9 9 9 9 8 8 8 8 8 8 8 8 8 9 8
19 19 19 19 19 19 18 18 17 17 16 16 16 16 15 15 15 14 14 14 14 14 14 14 14 14 14 14 13 13 13 13 12 12 12 12 11 11 11 11 11 10 10 10 10 10 10 9 9 9 9 9 8 8 8 8 8 8 8 8 8 8 8
19 19 19 19 19 18 18 18 18 17 17 16 16 16 15 15 14 14 14 14 14 14 14 14 14 14 14 14 13 13 13 13 13 12 12 12 11 11 11 11 11 10 10 10 10 10 10 9 9 9 9 9 8 8 7 7 7 7 7 7 8 8 8
19 19 19 19 19 19 18 18 18 17 17 17 16 16 15 15 15 14 14 14 14 14 14 14 14 14 14 14 13 13 13 13 13 12 12 12 12 11 11 11 11 10 10 10 10 10 9 9 9 9 9 9 8 8 8 7 7 7 7 7 7 7 7
19 19 19 19 19 19 18 18 18 18 17 17 17 16 15 15 15 15 14 14 14 14 14 14 14 14 14 14 13 13 13 13 13 12 12 12 12 11 11 11 10 10 10 10 10 10 9 9 8 9 9 9 8 8 8 7 7 7 7 7 7 7 7
19 19 19 19 19 19 19 19 18 18 18 18 17 16 16 15 15 15 14 14 14 14 14 14 14 14 14 14 13 13 13 13 13 12 12 12 12 12 11 11 10 10 10 10 9 9 9 9 8 8 8 8 7 7 7 7 7 7 7 6 6 6 6
19 19 19 19 19 19 19 19 19 18 18 18 18 17 16 16 15 15 14 14 14 14 14 14 14 13 13 13 13 13 13 13 13 12 12 12 12 11 10 10 10 10 10 9 9 9 9 9 9 8 8 7 7 6 6 6 6 6 6 6 6 6 6
19 19 19 19 19 19 19 19 18 18 18 18 18 17 17 16 16 15 14 14 14 14 14 14 14 14 14 13 13 13 13 13 13 13 12 12 11 10 10 9 9 9 9 9 9 9 9 9 9 8 8 7 7 6 5 5 5 6 6 6 6 6 6
19 19 19 19 19 19 19 19 18 18 18 18 18 17 17 17 16 15 15 14 14 14 14 14 14 14 14 14 13 13 13 13 13 13 12 11 10 10 10 9 8 8 8 8 9 9 9 9 9 8 7 7 7 6 5 5 5 5 5 5 5 5 5
19 19 19 19 19 19 19 19 18 18 18 18 18 17 17 17 17 16 15 15 14 14 14 14 14 14 14 14 14 14 13 13 13 12 11 10 10 10 9 9 8 8 8 8 9 9 10 10 9 8 8 8 7 7 6 6 6 5 5 5 5 5 5
19 19 19 19 19 19 19 19 18 18 18 18 18 18 17 17 17 16 16 15 14 14 14 14 14 14 14 14 14 14 14 13 12 12 12 11 10 10 9 9 9 8 9 9 10 10 10 9 8 8 9 9 8 7 7 7 6 5 5 5 4 4 4
19 19 19 19 19 18 19 19 18 18 18 18 18 18 18 17 17 16 15 15 14 14 14 14 14 14 14 14 14 14 13 13 13 13 12 12 11 10 10 10 11 11 11 10 10 10 10 9 8 8 8 8 8 7 7 6 6 5 5 5 4 4 3
18 18 18 19 19 18 18 18 18 18 18 18 18 18 18 17 17 16 15 15 15 14 14 14 14 14 14 14 14 14 14 14 13 13 13 13 13 12 11 11 12 12 11 10 10 10 10 9 9 8 8 8 7 7 7 7 6 5 5 5 4 4 4
18 18 18 19 19 18 18 18 18 19 18 18 18 18 17 17 17 16 15 15 15 15 14 14 14 14 14 14 14 14 14 14 14 14 14 13 13 13 12 12 12 12 12 11 11 10 10 10 9 9 8 8 7 7 7 7 6 5 5 5 4 4 4
18 18 18 19 19 18 18 18 19 19 18 18 18 17 17 17 17 16 16 15 15 15 15 15 14 15 15 14 14 14 14 14 14 14 14 14 13 13 13 12 12 12 12 11 11 10 10 10 10 9 8 8 7 7 7 6 5 5 5 4 4 4 4
18 18 18 19 19 19 18 18 18 18 18 18 18 17 17 17 17 16 16 15 15 15 15 15 15 15 15 14 14 14 14 14 14 14 14 13 13 13 13 12 12 12 12 11 11 11 10 10 10 9 8 8 7 6 6 6 5 4 4 4 4 4 4
18 18 18 19 19 19 19 18 19 19 18 18 17 17 17 17 16 16 15 15 15 15 15 15 15 15 15 15 14 14 14 14 14 13 13 13 13 13 13 13 12 12 12 11 11 11 10 10 10 9 9 7 6 6 6 5 5 4 4 4 4 4 4
18 18 19 19 19 19 19 19 19 18 18 18 17 17 17 16 16 16 16 15 15 15 15 15 15 15 15 15 15 14 14 14 13 13 13 13 13 13 13 13 12 12 11 11 11 10 10 10 9 9 8 7 7 6 6 6 5 4 4 4 4 4 4
18 18 19 19 19 19 19 19 19 18 18 18 17 17 17 16 16 16 16 16 15 15 15 15 15 15 15 15 14 14 14 14 13 13 13 13 13 13 12 12 12 11 11 10 10 10 10 9 9 8 8 7 7 6 6 6 5 4 4 4 4 3 3
18 18 18 18 19 19 19 19 19 18 18 17 17 17 17 17 16 16 16 16 16 16 15 15 15 15 15 15 14 14 14 14 13 13 13 13 13 12 12 11 11 11 10 10 10 10 9 9 9 8 8 7 7 6 5 5 5 4 4 4 3 3 3
18 18 18 18 18 18 19 19 18 18 18 17 17 17 17 17 16 16 16 16 16 16 15 15 15 15 15 14 14 14 14 14 13 13 13 13 12 12 11 11 10 10 10 10 10 10 9 9 8 8 8 7 7 6 5 5 4 4 4 4 3 3 3
18 18 18 18 18 18 18 18 18 18 17 17 17 17 17 17 16 16 16 16 15 15 15 15 15 15 15 14 14 14 14 13 13 13 12 12 12 12 11 11 10 10 10 10 10 9 9 9 8 8 8 7 6 6 5 5 4 4 4 3 3 3 3
18 18 18 18 18 18 18 18 18 17 17 17 17 17 17 17 16 16 15 15 15 15 15 15 14 14 14 14 14 13 13 13 12 12 12 12 11 11 11 10 10 10 10 9 9 9 9 9 8 8 8 7 6 6 5 5 4 4 4 3 3 3 3
18 18 18 18 18 17 18 18 17 17 17 16 16 16 16 16 16 15 15 15 15 14 14 14 14 14 14 14 13 13 12 12 12 12 12 11 11 11 10 10 10 9 9 9 9 9 8 8 8 8 8 7 6 6 5 5 5 4 4 3 3 3 3
18 18 18 17 17 17 17 17 17 17 16 16 16 16 16 15 15 15 14 14 14 14 14 14 13 13 14 13 13 12 12 12 11 11 11 11 10 10 10 9 9 9 9 9 9 8 8 8 8 8 7 6 6 5 5 5 4 4 3 3 3 3 3
17 17 16 16 16 16 16 16 16 16 15 15 15 15 15 15 15 14 14 13 14 14 14 14 13 13 13 13 12 12 11 11 11 11 10 10 10 9 9 9 9 9 8 8 8 8 8 7 7 7 6 6 5 5 5 5 4 4 3 3 3 3 3
16 15 15 15 15 15 14 15 15 15 15 15 15 14 14 14 14 14 13 13 13 13 13 13 13 13 13 12 12 12 11 11 10 10 10 9 9 9 9 8 8 8 8 8 8 8 7 6 6 6 6 5 5 5 5 4 4 4 4 4 3 3 3
16 15 15 15 15 14 14 14 14 14 14 14 14 14 13 13 13 13 13 13 13 13 13 13 13 13 13 12 12 11 11 11 10 10 9 9 9 8 8 8 8 8 8 7 7 7 7 6 6 5 5 5 4 4 4 4 4 4 4 3 3 4 4
15 15 15 14 14 14 13 13 13 13 13 13 13 13 13 13 13 13 13 13 13 13 13 13 13 13 13 12 12 11 11 11 10 9 9 9 9 8 8 8 8 7 7 7 7 6 6 6 5 5 5 5 4 4 4 4 4 4 4 4 4 4 3
14 14 14 14 14 13 13 12 12 12 12 12 12 12 13 13 13 13 13 13 13 13 13 13 12 12 12 12 12 11 11 11 10 9 9 9 8 8 8 8 7 7 6 6 6 6 6 6 5 5 5 5 5 4 4 4 3 3 4 4 4 3 3
12 12 13 13 13 12 12 12 12 12 12 12 12 12 13 13 13 13 13 13 13 12 12 12 12 12 12 11 11 11 11 10 9 9 9 9 8 8 8 7 7 7 6 6 6 6 6 6 5 5 5 5 4 4 4 3 3 3 3 3 3 3 3
11 11 12 12 12 12 12 12 12 12 12 12 12 12 12 12 12 13 13 13 13 12 12 12 12 11 11 11 11 11 10 9 9 9 9 8 8 7 7 7 7 7 6 6 6 6 6 6 5 5 5 4 4 4 3 3 3 3 3 3 3 3 3
11 11 11 11 11 12 12 12 12 12 12 12 12 12 12 12 12 12 12 12 12 12 12 11 11 11 11 11 11 10 9 9 8 8 8 8 7 7 7 7 7 7 6 6 6 6 6 5 5 5 4 4 4 4 3 3 3 3 3 3 3 3 3
11 11 11 11 11 11 11 11 11 11 11 11 11 11 11 12 12 12 12 12 12 11 11 11 11 11 11 11 10 9 9 8 8 8 8 8 7 7 7 7 6 6 6 6 5 5 5 5 5 5 4 4 4 3 3 3 3 3 3 3 3 3 3

ECMWFFLT1_700_temp_009.txt.gz
Temp
16 16 16 15 15 17 18 18 18 17 17 17 17 17 17 16 16 16 15 15 15 15 15 15 14 14 14 14 14 13 13 13 13 12 12 12 11 11 11 11 11 11 11 11 11 11 11 11 11 11 11 11 11 10 10 10 10 10 10 9 9 9 9
16 17 17 16 16 18 18 18 18 18 18 17 17 17 17 16 16 16 16 15 15 15 15 15 14 14 14 14 14 13 13 13 13 12 12 12 12 11 11 11 11 11 11 11 10 11 11 11 11 11 11 11 10 10 10 10 10 10 10 9 9 9 9
17 17 18 17 17 18 19 18 18 18 18 18 17 17 17 16 16 16 16 16 15 15 15 15 14 14 14 14 14 13 13 13 13 13 12 12 12 11 11 11 11 11 11 11 11 11 11 11 11 11 11 10 10 10 10 10 10 10 10 9 9 9 9
17 17 17 16 17 18 18 18 19 18 18 18 17 17 17 16 16 16 16 16 16 15 15 15 14 14 14 14 14 13 13 13 13 13 12 12 12 12 11 11 11 11 11 11 11 11 11 11 11 10 10 10 10 10 10 10 10 10 10 10 9 9 9
17 16 15 15 17 18 18 19 19 19 18 18 17 17 17 16 16 16 16 16 16 15 15 15 14 14 14 14 14 13 13 13 13 13 12 12 12 12 12 12 11 11 11 11 10 11 11 11 11 10 10 10 10 10 10 10 10 10 10 9 9 9 9
17 16 15 15 17 19 19 19 19 19 19 18 18 17 17 16 16 16 16 16 16 15 15 15 15 14 14 14 14 13 13 13 13 13 13 12 12 12 12 11 11 11 10 10 10 10 10 11 10 10 10 10 10 10 10 10 10 10 10 9 9 9 8
18 18 17 16 17 19 19 19 19 19 18 18 18 18 17 17 16 16 16 16 15 15 15 15 15 14 14 14 14 14 13 13 13 13 13 12 12 12 12 11 11 10 10 10 10 10 10 10 10 10 10 10 10 10 10 10 10 10 9 9 9 9 8
18 18 19 17 17 19 19 19 19 18 18 18 17 18 18 17 16 16 16 15 15 15 15 15 15 15 14 14 14 14 14 13 13 13 13 13 12 12 11 11 11 11 11 11 10 10 10 10 10 10 10 10 10 10 9 9 9 9 9 9 9 8 8
19 18 19 18 17 18 19 19 18 18 18 18 18 18 18 17 16 16 16 15 15 15 15 15 14 14 14 14 14 14 14 14 13 13 13 13 12 12 11 11 11 11 11 11 11 10 10 10 10 10 10 10 10 10 9 9 9 9 8 8 8 8 7
18 18 19 18 17 18 18 19 19 18 18 18 18 18 18 17 17 16 16 15 15 15 15 15 14 13 14 14 14 14 14 14 14 13 13 12 12 12 11 11 11 11 11 11 11 11 11 11 11 10 10 10 10 9 9 9 9 9 8 8 7 7 7
18 18 19 18 18 18 19 19 19 19 19 19 18 18 18 18 17 16 16 15 15 14 14 14 14 13 14 14 14 14 14 14 14 14 13 12 12 12 12 12 11 11 11 11 11 11 11 11 11 10 11 11 10 9 9 9 9 9 8 8 7 7 6
18 18 18 18 18 18 19 19 19 19 19 19 18 18 18 18 17 16 16 15 15 14 14 14 13 13 14 14 14 14 14 14 14 14 13 13 12 12 12 12 12 12 11 11 12 12 12 12 11 10 11 11 10 9 9 9 8 8 8 8 7 7 6
18 18 18 18 18 18 19 19 19 19 19 18 18 18 18 18 18 16 16 16 15 15 14 14 13 13 14 14 14 14 14 14 13 13 13 13 13 12 12 12 12 12 12 12 12 12 12 12 11 11 11 11 10 9 9 8 8 8 8 7 7 7 6
18 18 18 18 18 18 19 19 19 19 19 18 18 18 18 18 18 17 16 16 15 15 14 14 14 14 14 14 14 14 14 13 13 13 13 13 13 12 12 12 12 12 12 12 12 12 12 12 12 11 11 11 10 9 9 8 8 8 7 7 7 6 6
18 18 18 18 18 18 18 19 19 19 19 18 18 19 18 18 18 17 16 16 15 15 15 14 14 14 14 14 14 14 14 14 14 14 13 13 13 13 12 13 12 12 12 12 12 12 12 12 12 12 11 11 10 9 9 8 8 8 7 7 7 6 6
18 18 17 18 19 19 18 18 18 19 19 18 18 19 18 18 18 17 17 16 16 15 15 15 14 14 14 14 14 14 14 14 14 14 14 14 13 13 13 13 13 12 12 12 12 12 12 12 12 12 11 11 10 10 9 9 8 8 7 7 7 6 6
18 18 18 18 18 18 18 18 18 18 18 19 18 18 18 18 18 17 17 17 16 15 15 15 15 14 14 14 14 14 14 14 14 14 14 14 14 13 13 13 13 12 12 12 12 12 12 12 12 12 11 11 10 10 9 9 8 8 7 7 7 6 6
18 18 18 18 17 18 18 18 18 18 18 18 18 18 18 18 17 17 17 17 17 16 15 15 15 15 14 14 14 14 14 14 14 14 14 14 14 14 13 13 13 13 13 13 13 12 12 12 12 12 12 11 11 10 10 9 9 8 7 7 6 6 6
18 18 18 18 17 18 18 18 18 18 18 18 18 18 18 18 18 18 17 17 17 16 15 15 15 15 14 14 14 14 14 14 14 14 14 14 14 14 14 13 13 13 13 13 13 13 13 13 13 13 12 12 11 11 10 9 9 8 7 6 6 6 5
17 17 17 18 18 18 18 18 18 18 18 18 18 18 18 18 18 17 17 17 17 16 16 15 15 15 15 14 14 14 14 14 14 14 14 14 14 14 14 13 13 13 13 13 13 13 13 13 13 13 13 12 12 11 10 9 9 8 7 6 6 6 5
17 17 17 18 18 18 18 18 18 18 18 18 18 18 18 18 17 17 17 17 17 17 16 16 16 15 15 14 14 15 15 15 15 14 14 14 14 14 13 13 13 13 13 13 13 13 13 13 13 13 12 12 11 11 10 9 9 8 7 6 6 6 5
17 16 17 18 18 18 18 18 18 18 18 18 18 18 18 18 17 17 17 17 17 17 16 16 16 15 15 15 15 15 15 15 14 14 14 14 14 14 14 13 13 13 13 13 13 13 13 13 12 12 12 11 11 10 10 9 9 8 7 6 6 6 6
17 16 17 18 18 18 18 18 18 18 18 18 18 18 18 18 17 17 17 17 17 17 16 16 16 15 15 15 15 15 15 14 14 14 14 14 14 14 14 13 13 13 13 13 13 13 12 12 12 11 11 11 10 10 10 9 8 8 7 6 6 6 6
17 17 17 18 18 18 18 18 18 18 18 18 18 18 18 18 17 17 17 17 17 17 16 16 15 15 15 15 15 15 15 14 14 14 14 14 14 14 13 13 13 13 13 13 12 12 12 12 11 11 11 10 10 10 9 9 8 7 7 6 6 6 6
17 17 17 18 18 18 18 18 18 18 18 18 18 18 18 17 17 17 16 16 16 16 16 16 15 15 15 15 15 15 15 14 14 14 14 14 14 13 13 13 13 13 12 12 12 12 11 11 11 10 10 10 9 9 9 8 7 7 6 6 6 6 5
17 17 17 17 18 18 18 18 18 18 19 18 18 18 18 17 17 17 17 16 16 16 16 16 15 15 15 15 15 15 14 14 14 14 14 14 13 13 13 13 12 12 12 12 11 11 11 10 10 10 10 9 9 9 9 8 7 7 6 6 6 5 5
17 17 17 17 18 18 18 18 18 18 18 18 18 18 18 17 17 17 17 17 16 16 16 16 15 15 15 15 15 14 14 14 14 13 13 13 13 13 13 13 12 12 12 11 11 10 10 10 10 10 9 9 9 9 8 8 7 6 6 6 6 5 5
17 17 17 17 18 18 18 18 18 18 18 18 18 18 18 18 17 17 17 17 16 16 16 15 15 15 15 14 14 14 14 14 14 13 13 13 13 13 13 13 12 11 11 10 10 10 10 9 9 9 9 9 9 9 8 8 8 7 6 6 6 5 4
17 17 17 17 18 18 18 18 18 18 18 18 18 18 18 18 17 17 16 16 16 16 15 15 15 15 15 14 14 14 14 14 13 13 13 13 13 13 13 12 11 11 10 10 10 10 9 9 9 9 9 9 9 9 9 8 8 7 6 6 5 5 4
17 17 17 18 18 18 18 18 18 18 18 18 18 17 17 16 16 16 15 15 15 15 15 15 14 14 14 14 14 14 14 14 13 13 13 13 13 13 12 12 11 10 10 10 10 9 9 9 9 9 9 8 8 8 8 8 7 6 6 6 5 5 5
16 17 17 17 17 17 17 18 18 18 18 18 17 16 15 15 15 15 14 14 14 14 14 14 14 14 14 14 14 14 14 13 13 13 13 13 13 12 12 12 11 10 10 10 9 9 9 9 8 8 8 8 8 8 8 7 6 6 6 5 5 5 5
15 15 16 16 17 17 17 17 17 17 17 17 16 15 14 14 14 14 14 14 14 14 14 13 13 13 13 13 13 13 13 13 13 13 13 13 13 12 12 12 11 10 10 10 9 9 9 8 8 8 8 8 7 7 7 6 6 6 5 5 5 5 4
15 15 15 15 15 15 15 16 16 16 16 15 14 14 13 13 13 13 13 13 13 13 13 13 13 13 13 13 13 13 13 13 13 13 13 12 12 12 12 12 11 10 10 9 9 9 8 8 8 7 7 7 7 7 6 6 6 6 5 5 5 4 4
15 15 15 14 13 13 13 13 14 14 14 13 13 13 13 13 13 13 13 13 13 13 13 13 13 13 13 13 12 12 12 12 12 12 12 12 12 12 12 11 11 10 10 9 8 8 8 8 7 7 7 7 6 6 6 6 5 5 5 5 5 4 4
13 14 14 14 13 12 12 12 12 12 12 12 12 12 12 12 12 12 12 12 13 13 13 13 13 13 12 12 12 12 12 12 12 12 12 11 11 12 11 11 10 10 9 9 8 8 7 7 7 7 7 7 6 6 6 5 5 5 5 4 4 3 3
11 12 12 12 12 12 12 12 12 12 12 12 12 12 12 12 12 12 12 12 12 12 12 12 12 12 12 12 11 11 11 11 11 11 11 11 11 11 11 10 10 9 9 8 8 7 7 7 7 7 7 6 7 6 6 5 5 4 4 4 4 3 3
10 11 11 11 11 11 11 11 11 12 12 12 12 12 12 12 12 12 12 12 12 12 12 12 11 11 11 11 10 10 10 10 11 11 10 10 10 10 10 10 9 9 8 8 7 7 7 7 7 7 6 6 6 6 5 5 5 4 4 4 4 4 4
10 10 10 11 11 11 11 11 11 11 12 12 12 12 12 12 12 12 12 12 12 12 11 11 11 11 10 10 10 10 10 10 10 10 10 10 10 9 9 9 9 8 8 7 7 7 7 7 7 7 6 6 6 5 5 5 5 4 4 4 4 4 4

ECMWFFLT1_700_temp_012.txt.gz
Temp
18 18 18 18 18 17 17 17 18 18 17 17 17 17 17 17 17 17 17 17 16 15 15 15 15 15 15 15 15 14 14 14 14 14 13 13 13 12 12 12 12 12 12 12 12 11 11 12 12 12 11 11 11 11 11 11 11 11 11 11 11 10 10
18 18 18 18 18 18 18 18 18 18 18 18 17 17 17 17 17 17 17 17 17 16 15 15 15 15 15 15 15 14 14 14 14 14 13 13 13 13 12 12 12 12 12 12 12 12 12 12 12 12 11 11 11 11 11 11 11 11 11 11 11 10 10
18 18 18 18 18 18 18 18 18 18 18 18 17 17 17 17 17 17 17 17 17 16 16 16 16 15 15 15 15 14 14 14 14 14 13 13 13 13 12 12 12 12 12 12 12 12 12 12 12 12 11 11 11 11 11 11 11 11 10 10 10 10 10
18 18 18 18 18 18 18 18 18 18 18 18 18 17 17 17 17 17 17 17 16 16 16 16 16 15 15 15 15 14 14 14 14 14 13 13 13 13 12 12 12 12 12 12 12 12 12 12 12 12 12 12 12 11 11 11 11 10 10 10 10 10 9
18 18 18 18 18 18 18 18 18 18 18 18 18 17 17 17 17 17 17 17 16 16 16 16 16 15 15 15 15 14 14 14 14 13 13 13 13 13 12 12 12 12 12 12 12 12 12 12 12 12 12 12 12 11 11 11 11 10 10 10 10 10 9
19 18 18 18 19 19 19 18 18 18 18 17 17 17 17 17 17 17 16 16 16 16 16 16 16 15 15 15 15 14 14 14 14 13 13 13 13 13 13 12 12 12 12 12 12 12 12 12 12 12 12 12 12 11 11 11 10 10 10 10 9 9 9
19 18 19 19 19 19 19 19 18 18 17 16 15 16 16 17 17 17 16 16 16 16 16 16 16 15 15 15 15 14 14 14 14 14 13 13 13 13 13 13 13 13 13 13 13 13 13 12 12 12 12 12 11 11 11 11 10 10 10 9 9 9 9
19 19 19 20 19 19 19 19 18 18 17 16 16 15 16 17 17 17 16 16 16 16 16 16 16 16 15 15 15 15 14 14 14 14 14 13 13 13 13 13 13 13 13 13 13 13 13 13 12 12 12 12 11 11 11 11 10 10 10 9 9 9 9
20 20 20 20 19 19 19 19 18 18 18 18 17 15 16 17 17 17 17 16 16 16 16 16 16 16 16 15 15 15 14 14 14 14 14 14 13 13 13 13 13 13 13 13 13 13 13 13 13 12 12 11 11 11 11 11 10 10 10 9 9 9 8
21 20 19 19 19 19 19 18 18 19 18 19 18 16 15 17 18 17 17 16 16 16 16 16 16 16 16 15 15 15 14 14 14 14 14 14 13 13 13 13 13 13 13 13 13 13 13 12 12 12 12 12 11 11 11 11 10 10 10 9 9 9 8
20 19 19 19 19 19 19 18 18 19 19 19 18 16 15 17 18 17 17 16 16 16 16 16 16 16 16 15 15 15 15 14 14 14 14 14 14 14 14 14 14 13 13 13 13 13 13 12 12 12 12 12 11 11 11 11 10 10 9 9 9 9 8
20 19 19 19 19 19 19 19 18 18 18 19 18 16 16 17 18 17 17 17 16 16 16 16 15 15 15 15 15 15 15 15 14 14 14 14 14 14 14 14 14 14 13 13 13 13 12 12 12 12 11 11 11 11 11 11 10 10 10 9 9 9 8
19 19 19 19 19 19 19 18 18 18 18 18 17 16 16 17 17 17 17 17 16 16 16 16 15 15 15 15 15 15 14 15 15 14 14 14 14 14 14 14 14 14 13 13 13 13 12 12 12 11 11 11 11 11 11 10 10 10 10 9 9 9 9
19 19 19 19 19 18 18 18 18 18 18 17 17 17 17 17 17 17 17 17 16 16 16 16 15 15 15 15 15 14 14 15 15 14 14 14 14 14 14 14 14 14 13 13 13 13 12 12 12 11 11 11 11 11 11 10 10 10 10 10 9 9 9
19 19 19 19 19 18 18 18 18 18 17 17 16 17 17 17 16 16 16 17 16 16 16 16 16 15 15 15 15 15 15 15 15 14 14 14 14 14 14 14 14 13 13 13 13 12 12 12 12 11 11 11 11 11 11 11 11 10 10 10 9 9 9
19 19 19 18 18 18 18 18 18 18 18 17 17 17 17 17 17 17 16 16 16 16 15 16 16 15 15 15 15 15 15 15 15 14 14 14 14 14 14 14 14 13 13 13 12 12 12 12 12 12 11 11 12 12 11 11 11 10 10 10 9 9 8
19 19 18 18 18 19 18 18 18 18 18 18 18 18 17 17 17 17 17 16 16 16 15 15 16 16 15 16 16 16 15 15 15 15 14 14 14 14 14 14 13 13 13 13 12 12 12 12 12 12 12 11 11 11 11 11 11 11 10 9 9 8 8
19 19 18 18 18 18 18 18 18 18 18 18 18 18 17 17 17 17 17 17 17 16 15 15 16 16 16 16 16 16 16 16 15 15 14 14 14 14 14 14 13 13 13 13 13 13 13 13 13 12 12 12 11 11 11 12 11 11 10 10 9 8 8
18 19 18 18 18 18 18 18 18 18 18 18 18 18 18 17 17 18 18 17 17 17 16 15 16 16 16 16 16 16 17 16 16 15 15 14 14 14 14 14 13 13 13 13 13 14 13 13 13 13 12 12 12 12 12 12 11 11 11 10 9 8 7
18 18 18 18 18 18 18 18 18 18 18 18 18 18 18 18 17 18 18 17 17 17 16 16 16 16 16 16 16 16 17 17 16 16 15 14 14 14 14 14 13 13 14 14 14 14 14 13 13 13 12 12 12 12 12 12 12 12 12 11 9 7 7
18 18 18 18 18 18 18 18 18 18 18 18 18 18 18 18 18 18 18 17 17 17 17 16 16 16 16 16 16 17 17 17 17 15 15 14 14 14 14 14 14 14 14 14 14 14 13 13 13 13 13 13 13 13 12 12 12 12 12 11 9 8 7
18 18 18 18 18 18 18 18 18 18 18 18 18 18 18 18 18 18 18 18 17 17 17 16 16 16 16 16 17 17 17 17 16 15 14 14 14 14 14 14 14 14 14 14 13 13 13 13 13 13 13 13 13 12 12 12 12 12 12 11 10 9 8
18 18 18 18 18 18 18 18 18 18 18 18 18 18 18 18 18 18 18 18 17 17 17 16 15 15 16 17 17 17 17 16 15 15 14 14 14 14 14 14 14 14 14 13 13 13 13 13 13 13 13 13 12 12 12 12 12 11 11 11 10 9 8
17 17 18 18 18 18 17 17 17 17 18 18 18 18 18 18 18 18 18 18 18 17 17 16 16 16 16 17 17 17 16 16 15 15 14 14 14 14 14 14 14 14 14 13 13 13 13 13 13 13 13 12 12 12 12 11 11 11 11 10 9 9 8
17 17 17 17 17 18 18 18 18 17 18 18 18 18 18 18 18 18 18 18 18 18 17 17 17 17 17 17 17 17 16 15 15 14 14 14 14 14 14 14 14 14 13 13 13 13 13 13 13 13 12 12 11 11 11 11 11 10 10 9 9 8 8
17 17 17 17 17 18 18 18 18 17 18 18 18 18 18 18 18 18 18 18 18 18 18 17 17 17 17 17 17 16 16 15 15 14 14 14 14 14 14 14 13 13 13 13 13 13 13 13 13 12 11 11 11 10 10 10 10 10 9 9 9 8 8
17 17 16 16 17 17 17 17 17 17 17 17 17 18 18 18 18 18 18 18 18 18 18 17 17 17 17 17 17 16 15 15 14 14 14 14 14 14 14 13 13 13 13 13 13 13 13 13 12 11 10 10 10 10 10 10 9 9 9 9 8 8 7
16 16 16 16 16 16 16 16 16 17 17 17 17 17 18 18 18 18 18 18 18 18 18 17 17 17 17 17 16 15 15 14 14 14 14 14 14 14 13 13 13 13 13 13 13 13 13 12 12 11 10 10 10 10 10 9 9 9 9 8 8 8 7
16 15 15 15 16 16 16 16 16 16 16 16 17 17 17 18 18 18 18 18 18 17 17 17 17 17 17 16 15 15 14 14 14 14 14 14 14 13 13 13 13 13 13 13 13 13 12 12 12 11 11 11 10 10 10 9 9 9 8 8 8 7 7
15 15 15 14 14 15 15 16 16 16 16 16 17 17 17 17 18 18 18 17 17 17 17 17 17 16 16 15 15 14 14 14 14 14 14 13 13 13 13 13 13 13 13 13 13 13 12 12 12 11 11 11 10 10 9 9 9 8 8 8 8 7 6
14 15 15 14 13 13 15 16 16 16 16 16 17 17 17 17 18 18 18 17 17 17 17 16 16 16 15 15 14 14 13 13 14 13 13 13 13 13 13 13 13 13 13 13 12 12 12 12 12 11 11 10 10 10 9 9 9 8 8 8 7 7 6
14 14 15 14 12 13 14 15 15 15 16 16 16 17 17 18 17 17 17 17 17 17 16 16 15 15 14 14 13 13 13 13 13 13 13 13 13 13 13 13 12 12 12 12 12 12 11 11 11 11 10 10 9 9 9 8 8 8 8 7 7 7 6
13 14 14 12 11 12 14 15 15 15 15 15 16 16 16 15 15 15 16 16 16 15 15 15 15 14 13 13 13 13 13 13 13 13 13 13 12 12 12 12 12 12 12 12 12 11 11 11 10 10 10 9 9 9 9 8 8 8 8 7 7 6 6
13 13 12 11 10 12 13 14 13 13 13 13 13 14 13 13 13 13 14 14 14 14 14 14 13 13 13 13 13 13 13 12 12 12 12 12 12 12 12 11 12 12 12 11 11 11 10 10 10 9 9 8 8 8 9 8 8 7 7 7 6 6 5
12 11 10 10 11 12 13 12 12 12 12 12 12 12 12 12 12 12 12 12 13 13 13 13 13 13 13 13 13 13 12 12 12 12 12 12 12 11 11 11 11 11 11 11 10 10 9 9 9 9 9 8 8 8 8 8 7 7 6 6 5 5 5
9 10 10 11 11 11 11 11 11 11 11 11 11 11 12 12 12 12 12 12 12 12 12 13 13 13 13 12 12 12 12 12 11 11 11 11 11 11 11 11 11 11 10 10 9 9 9 9 8 8 8 8 8 8 8 7 7 6 6 5 5 5 5
9 9 10 11 11 11 11 11 10 10 11 11 11 11 11 11 12 12 12 12 12 12 12 12 12 12 12 12 12 12 11 11 11 11 11 11 11 11 11 11 11 10 9 9 9 8 8 8 8 8 8 7 7 7 7 7 6 6 6 6 5 5 5
9 9 10 10 11 11 10 10 10 10 11 11 11 11 11 12 12 12 12 12 12 12 12 12 12 12 12 12 12 12 11 11 11 11 11 11 11 10 10 10 10 9 9 8 8 8 8 8 8 8 7 7 7 7 7 6 6 6 6 5 5 5 5

ECMWFFLT1_700_temp_015.txt.gz
Temp
17 16 16 16 16 17 17 17 17 17 17 17 17 17 17 17 17 17 17 17 16 16 15 15 14 14 14 14 14 14 14 14 14 14 14 14 14 14 13 13 13 13 13 13 13 13 12 12 12 12 12 12 11 11 11 11 11 11 11 11 11 10 10
17 17 17 17 17 17 17 17 17 17 17 17 17 17 17 17 17 17 17 17 17 16 15 15 15 14 14 14 14 14 14 15 15 14 14 14 14 14 14 13 13 13 13 13 13 13 13 12 12 12 12 12 11 11 11 11 11 11 11 11 10 10 10
17 17 17 17 17 17 18 18 18 18 18 18 18 18 18 18 17 17 17 17 17 16 16 15 15 14 14 14 15 15 15 15 15 15 14 14 14 14 14 13 13 13 13 13 13 13 13 13 12 12 12 12 11 11 11 11 11 11 11 10 10 10 10
18 17 17 17 18 18 18 18 18 18 18 18 18 18 18 18 17 17 17 17 17 17 16 15 15 15 15 15 15 15 15 15 15 14 14 14 14 14 14 14 14 14 13 13 13 13 13 13 13 12 12 12 11 11 11 11 11 11 10 10 10 10 9
18 18 18 18 18 18 18 18 18 18 18 18 18 18 18 18 17 17 17 17 17 17 16 16 15 15 15 15 15 15 15 15 14 14 14 14 14 14 14 14 14 14 13 13 13 13 13 13 13 12 12 12 12 11 11 11 11 11 10 10 10 10 10
18 18 18 18 18 18 18 18 18 18 18 18 18 18 18 18 18 17 17 17 17 16 16 16 15 15 15 15 15 15 15 15 14 14 14 14 14 14 14 14 14 14 13 13 13 13 13 13 13 12 12 12 12 11 11 11 11 10 10 10 10 10 10
19 19 19 19 19 19 18 18 18 19 18 18 18 18 18 18 18 18 17 17 17 16 16 16 16 16 16 15 15 15 15 15 14 14 14 14 14 14 14 14 14 14 13 13 13 13 13 13 13 12 12 12 12 12 12 11 11 11 10 10 10 10 10
19 19 19 19 19 19 19 18 19 19 19 19 18 19 19 19 18 18 17 17 17 16 16 16 16 16 16 16 15 15 15 15 14 14 14 14 14 14 14 14 14 14 13 13 13 13 13 13 13 13 12 12 12 12 12 11 11 11 10 10 10 10 10
19 19 19 19 19 19 19 19 19 19 19 19 19 19 19 19 19 18 18 17 17 16 16 16 16 16 16 16 16 15 15 15 14 14 14 14 14 14 14 14 14 14 14 14 13 13 13 13 13 13 12 12 12 12 12 12 11 11 11 10 10 10 10
19 19 19 19 19 19 19 19 19 19 19 19 19 19 19 19 19 18 18 17 17 17 16 16 16 16 16 16 16 16 15 15 15 14 14 14 14 14 14 14 14 14 14 14 13 13 13 13 13 13 12 12 12 12 12 11 11 11 11 11 10 10 10
20 19 19 19 19 19 19 19 19 19 19 19 19 19 19 19 19 19 18 18 17 17 17 16 16 16 16 16 16 16 16 15 15 14 14 14 14 14 14 14 14 14 14 14 14 13 13 13 13 13 12 12 12 12 11 11 11 11 11 11 10 10 10
20 20 19 19 19 19 19 19 19 19 19 19 19 19 19 19 19 19 19 18 18 17 17 16 16 16 16 16 16 16 16 15 15 15 15 14 14 14 14 14 14 14 14 14 14 14 13 13 13 13 12 12 12 12 11 11 11 11 11 10 10 10 10
20 20 20 20 19 19 19 19 19 19 19 19 19 19 19 19 19 19 18 18 18 17 17 16 16 16 16 16 16 16 16 16 15 15 15 15 15 15 14 14 14 14 14 14 14 14 13 13 13 13 12 12 12 12 11 11 11 11 11 10 10 10 10
20 20 20 20 20 19 19 19 18 18 19 19 19 19 19 19 18 18 18 18 18 18 17 17 16 16 16 16 16 15 15 15 15 15 15 15 15 15 14 14 14 14 14 14 14 14 13 13 13 13 12 12 12 12 12 11 11 11 11 10 10 10 10
19 20 19 19 19 18 18 18 18 18 19 19 19 19 19 18 18 18 18 18 18 18 17 17 16 16 16 16 16 15 15 15 15 15 15 15 15 15 15 14 14 14 14 14 14 14 13 13 13 12 12 12 12 12 12 11 11 11 11 11 10 10 10
19 19 19 19 19 18 18 18 18 19 19 19 19 19 18 18 18 18 18 19 18 18 18 17 17 16 16 16 16 15 15 15 15 15 15 15 15 15 15 15 14 14 14 14 14 13 13 13 13 12 12 12 12 12 11 11 11 11 11 10 10 10 10
19 19 19 19 18 18 19 18 18 19 19 19 19 18 18 18 18 19 19 19 19 18 18 17 17 16 16 16 16 15 15 15 15 15 15 15 15 15 15 15 14 14 14 14 13 13 13 13 13 12 12 12 12 12 11 11 11 11 11 10 10 10 9
18 18 18 18 18 18 18 18 18 18 18 19 19 18 18 18 19 19 19 19 19 18 18 17 17 17 17 16 16 15 15 15 15 15 15 15 15 15 15 14 14 14 14 13 13 13 13 13 13 12 12 12 12 12 12 12 12 12 11 11 10 10 9
18 18 18 18 18 18 18 18 18 18 18 18 18 18 18 18 18 19 19 19 19 18 18 18 18 17 17 16 16 16 15 15 15 15 15 16 15 15 14 14 14 14 13 13 13 13 13 13 13 13 13 13 12 12 12 12 12 12 11 11 10 10 9
18 18 18 18 18 18 18 18 18 18 18 18 18 18 18 18 18 19 19 18 18 18 18 18 18 18 17 17 16 16 16 15 15 15 15 15 15 14 14 14 14 14 13 13 13 13 13 13 13 13 13 13 13 13 13 13 13 12 12 11 11 10 9
19 18 18 18 18 18 18 18 18 18 18 18 18 18 18 18 18 18 18 18 18 18 18 18 18 18 18 17 17 16 16 16 16 15 15 15 14 14 14 14 14 14 14 13 13 13 13 13 13 13 13 13 13 13 13 13 13 13 12 12 12 11 10
18 18 18 19 19 18 18 18 18 18 18 18 18 18 18 18 18 18 18 18 18 18 18 18 18 18 18 17 17 17 17 16 16 16 15 15 14 14 14 14 14 14 13 13 13 13 13 13 13 13 13 13 13 13 13 13 13 13 13 12 12 11 11
18 18 18 18 18 18 18 18 18 18 18 18 18 18 18 18 18 18 18 18 18 18 18 18 18 18 18 18 18 17 17 17 16 16 16 15 14 14 14 14 14 14 13 13 14 14 14 13 13 13 13 13 13 13 13 13 13 13 12 12 12 11 11
18 18 18 18 18 18 18 18 18 18 18 18 18 18 18 18 18 18 18 18 18 18 18 18 18 18 18 18 18 18 18 17 17 16 16 15 15 14 14 14 14 14 13 14 14 14 13 13 13 13 13 13 13 13 13 13 12 12 12 11 11 11 10
18 18 18 18 18 18 18 17 17 17 17 17 18 18 18 18 18 18 18 18 18 18 18 18 18 18 18 18 18 18 18 18 17 17 16 16 15 15 14 14 14 14 14 13 13 13 13 13 13 13 13 12 13 13 13 12 12 11 11 11 10 10 10
18 17 18 18 18 17 17 17 17 17 17 17 17 18 18 18 18 18 18 18 18 18 18 18 18 18 18 18 18 18 18 18 17 17 16 16 15 15 15 14 14 14 13 13 13 13 13 13 13 13 12 12 13 13 13 12 11 11 10 10 10 9 9
17 17 17 17 17 17 17 17 17 17 17 17 17 17 17 17 17 17 17 18 18 18 18 18 18 18 18 18 18 18 18 18 17 17 16 15 15 15 14 14 13 13 13 13 13 13 13 13 13 13 12 13 13 13 13 12 11 11 10 10 10 9 9
17 17 17 16 17 17 17 17 17 17 17 17 17 17 17 17 17 17 17 17 18 18 18 18 18 18 18 18 18 17 18 18 17 17 16 15 15 14 14 13 13 13 13 13 13 13 13 13 13 13 13 13 13 13 13 12 11 11 10 10 9 9 9
17 17 16 16 16 17 17 17 17 17 17 17 17 17 17 17 17 17 17 17 17 17 17 18 18 18 18 17 17 17 17 17 17 16 16 15 14 14 13 13 13 13 13 13 12 13 13 13 13 13 13 13 13 13 13 12 11 11 10 10 9 9 9
16 16 16 15 15 16 16 17 17 17 17 16 16 16 17 17 17 17 17 17 17 17 17 17 18 18 18 17 17 17 17 17 16 15 15 15 14 14 13 13 13 13 13 13 13 13 13 13 13 13 13 12 13 13 12 11 11 10 10 9 9 9 9
16 16 16 15 15 15 15 16 16 16 16 15 15 15 15 16 16 16 16 16 16 17 17 17 17 18 18 17 17 16 16 15 15 15 15 14 14 13 13 13 13 13 13 13 13 13 13 13 12 12 12 12 12 12 11 11 10 10 10 9 9 9 9
15 15 15 15 15 15 15 15 15 15 15 15 14 14 14 14 15 16 16 16 16 16 17 17 18 18 17 17 16 15 15 14 14 14 14 13 13 13 13 13 13 13 13 13 12 12 12 12 12 12 12 12 11 10 10 10 10 9 9 9 9 8 8
15 15 15 15 15 15 15 15 15 15 15 15 15 14 13 12 12 14 16 16 16 16 17 17 17 17 16 15 15 14 13 13 13 13 13 13 13 13 13 13 13 13 12 12 12 12 12 12 12 12 12 11 10 10 10 9 9 9 9 8 8 8 7
15 15 15 15 15 15 14 14 15 15 15 15 15 15 14 12 11 12 14 15 16 15 15 15 15 15 14 13 13 12 12 12 12 13 13 13 13 13 13 13 12 12 12 12 12 12 12 12 12 12 11 10 10 9 9 9 9 8 8 7 7 7 7
14 15 15 15 15 15 15 14 14 14 15 15 15 15 15 13 12 10 11 13 14 14 13 13 13 13 13 12 12 12 12 12 13 13 13 13 13 13 12 12 12 12 12 12 12 12 12 12 12 12 10 10 9 9 9 8 8 7 7 7 7 7 7
14 14 14 14 14 14 14 14 13 13 13 14 14 14 14 14 12 10 10 11 12 12 12 12 12 12 12 12 12 12 12 12 12 12 12 12 12 12 12 12 12 12 11 11 11 11 11 11 11 11 10 9 9 8 8 7 7 7 6 6 6 6 6
13 13 13 13 13 14 14 13 13 13 13 13 13 13 13 12 11 10 10 10 11 12 11 11 12 12 12 12 12 12 12 12 12 12 12 12 12 12 12 11 11 11 11 11 11 11 11 11 11 10 9 8 8 8 7 6 6 6 6 6 6 6 6
11 12 12 11 11 11 11 12 12 12 13 13 13 12 11 10 10 10 10 11 11 11 11 11 11 11 11 11 12 12 12 12 12 12 12 12 12 12 11 11 11 11 11 12 12 11 11 11 10 9 8 8 7 7 7 6 6 6 6 6 6 6 5

ECMWFFLT1_700_temp_021.txt.gz
Temp
19 18 18 18 17 17 17 16 16 16 16 16 16 16 16 15 15 15 15 15 15 14 14 14 14 14 14 14 14 14 14 13 13 13 13 13 12 12 12 12 12 12 11 11 11 11 11 11 11 12 12 12 12 12 12 11 11 11 11 11 11 10 10
18 18 18 18 18 17 17 16 16 16 16 16 16 16 16 16 16 15 15 15 15 15 14 14 14 14 14 14 14 14 14 13 13 13 13 13 12 12 12 12 12 12 11 11 11 11 11 11 12 12 12 12 12 12 12 11 11 11 11 11 11 10 10
18 18 18 18 18 18 17 17 16 16 16 16 16 16 16 17 16 16 16 15 15 15 15 15 15 14 14 14 14 14 14 13 13 13 13 13 13 12 12 12 12 12 12 11 11 12 12 12 12 12 12 12 12 12 11 11 11 11 11 11 11 10 10
19 19 18 18 18 18 17 17 17 16 16 16 16 17 17 17 17 16 16 16 15 15 15 15 15 15 15 14 14 14 14 14 14 13 13 13 13 13 13 13 13 12 12 12 12 12 12 12 12 12 12 12 12 12 11 11 11 11 11 11 11 10 10
19 19 18 18 18 18 18 17 17 17 17 16 17 17 17 17 17 16 16 16 15 15 15 15 15 15 15 15 15 14 14 14 14 14 13 13 13 13 13 13 13 13 13 12 12 13 13 13 13 12 12 12 12 12 12 11 11 11 11 11 11 10 10
19 19 18 18 18 18 18 17 17 17 17 17 17 17 17 17 17 16 16 16 16 15 15 15 15 15 15 15 15 15 14 14 14 14 14 13 13 13 14 14 14 13 13 13 13 13 13 13 13 13 12 12 12 12 12 11 11 11 11 11 10 10 10
20 20 19 19 19 19 18 17 17 17 17 17 17 17 17 17 17 17 16 16 16 16 16 15 15 16 16 15 15 15 15 14 14 14 14 14 14 14 14 14 14 14 13 13 13 13 13 13 13 13 12 12 12 12 12 11 11 11 11 11 11 10 10
20 20 19 19 19 19 18 18 18 18 17 17 17 17 17 17 17 17 16 16 16 16 16 16 16 16 16 15 15 15 15 15 14 14 14 14 14 14 14 14 14 14 14 14 14 13 13 13 13 12 12 12 12 12 12 11 11 11 11 11 11 10 10
20 20 20 20 19 19 19 18 18 18 18 17 17 17 17 17 17 17 17 17 16 16 16 16 16 16 15 15 15 15 15 15 15 14 14 14 15 15 14 14 14 14 14 14 14 14 13 13 13 12 12 12 12 12 12 12 11 11 11 11 11 10 10
20 20 20 20 20 19 19 19 18 18 18 18 17 17 17 17 17 17 17 17 17 17 17 17 16 16 16 15 15 15 15 15 15 15 15 15 15 15 15 14 14 14 14 14 14 14 13 13 13 13 12 12 12 12 12 12 11 11 11 11 11 10 10
20 20 20 19 19 19 19 19 18 18 18 18 18 17 18 18 18 17 17 17 17 17 17 17 17 16 16 15 15 15 15 15 15 15 15 15 15 15 15 14 14 14 14 14 14 14 13 13 13 13 12 12 12 12 12 12 11 11 11 11 11 11 10
20 20 20 20 19 19 19 19 19 18 18 18 18 18 18 18 18 18 17 17 17 17 17 17 17 17 16 16 15 15 15 16 16 16 16 16 16 15 15 15 14 14 14 14 14 14 13 13 13 13 13 12 12 12 12 12 11 11 11 11 11 11 11
20 20 20 20 19 19 19 19 19 19 18 18 18 18 18 18 18 18 17 17 17 17 17 17 17 17 16 16 16 16 16 16 16 16 16 16 16 15 15 15 14 14 14 14 14 14 14 13 13 13 13 12 12 12 12 12 12 11 11 11 11 11 11
20 20 20 20 19 19 19 19 19 19 19 19 18 18 18 18 18 18 18 17 17 17 17 17 17 17 17 16 16 16 16 16 16 16 16 16 16 15 15 15 15 14 14 14 14 14 14 13 13 13 13 12 12 12 12 12 12 12 12 12 11 11 11
20 20 20 20 19 19 19 19 19 19 19 19 19 19 18 18 18 18 18 18 18 18 18 18 17 17 17 17 17 17 16 16 16 16 16 16 16 15 15 15 15 15 14 14 14 14 14 13 13 13 13 13 13 12 12 12 12 12 12 12 12 11 11
20 20 20 20 20 19 19 19 19 19 19 19 19 19 19 19 18 18 18 18 18 18 18 18 18 17 17 17 17 17 17 16 16 16 16 16 16 16 15 15 15 15 14 14 14 14 14 13 13 13 13 13 13 13 13 13 12 12 12 12 12 12 11
19 20 20 20 20 20 19 19 19 19 19 19 19 19 19 19 19 19 18 18 18 18 18 18 18 17 17 18 17 17 17 17 16 16 16 16 16 16 16 15 15 15 14 14 14 14 14 13 13 13 13 13 13 13 13 13 13 13 12 12 12 12 12
19 19 19 20 20 20 20 19 19 19 19 19 19 19 19 19 19 18 18 18 18 18 18 18 18 18 18 18 17 17 17 17 16 16 16 16 16 16 16 15 15 15 15 15 14 14 14 14 14 13 13 13 13 13 13 13 13 13 13 12 12 12 12
19 19 19 19 20 20 20 20 19 19 20 19 19 19 19 19 19 18 18 18 18 18 18 18 18 18 18 18 18 17 17 17 17 16 16 16 16 15 15 15 15 15 15 15 15 14 14 14 14 14 13 13 13 13 13 13 13 13 13 13 12 12 12
19 19 19 19 19 19 19 19 19 19 19 19 19 19 19 19 19 18 18 18 18 18 18 18 18 18 18 18 18 18 17 17 17 17 16 16 16 15 15 15 15 15 15 15 15 15 14 14 14 14 14 14 13 13 13 13 13 13 13 12 12 12 11
19 19 19 19 19 19 19 19 19 19 19 19 19 19 19 18 18 18 18 18 18 18 18 18 18 19 18 18 18 18 18 18 17 17 16 16 16 16 15 15 15 15 15 15 15 15 15 15 14 14 14 14 14 14 13 13 13 13 13 12 12 12 11
19 19 19 19 19 19 19 19 19 19 19 19 19 19 18 18 18 18 18 18 18 18 18 18 18 18 18 18 18 18 18 18 18 17 17 16 16 16 15 15 15 15 15 15 15 15 15 15 14 14 14 14 14 14 13 13 13 13 12 12 12 11 11
19 19 19 19 19 19 19 19 19 19 19 19 19 19 18 18 18 18 18 18 18 18 18 18 18 18 18 18 18 18 18 18 18 17 17 16 16 16 16 15 15 15 15 15 15 15 15 15 15 14 14 14 14 14 13 13 13 13 12 12 12 11 11
19 19 19 18 19 18 18 18 18 18 19 19 19 19 18 18 18 18 18 18 18 18 18 18 18 18 18 18 18 18 18 18 18 17 17 17 16 16 16 15 15 15 15 15 15 15 15 15 15 14 14 14 14 14 13 13 13 12 12 12 12 11 12
19 18 18 18 18 18 18 18 18 18 18 18 19 19 18 18 18 18 18 18 18 18 18 18 18 18 18 18 18 18 18 18 18 17 17 17 17 16 16 16 15 15 15 15 15 15 15 14 14 14 14 14 14 13 13 13 13 12 12 12 12 12 12
18 18 18 18 18 18 18 18 18 18 18 18 18 18 18 18 18 18 18 18 18 18 18 18 18 18 18 18 18 18 18 18 18 17 17 17 17 16 16 16 15 15 15 15 15 14 14 14 14 14 14 14 13 13 13 13 13 12 12 12 12 12 12
18 18 18 18 18 18 18 18 18 18 18 18 18 18 18 18 18 18 18 18 18 18 18 17 17 18 18 18 17 17 18 18 18 18 17 16 16 16 16 16 15 15 15 15 14 14 14 14 14 14 14 14 13 13 13 13 12 12 12 12 12 12 12
17 17 17 17 17 17 17 17 17 17 17 17 17 17 17 17 17 17 17 17 17 17 17 17 17 17 17 17 17 17 17 18 18 17 17 16 16 16 16 16 16 15 15 15 14 14 14 14 14 14 14 13 13 13 13 12 12 12 12 13 12 12 12
16 16 16 16 17 17 17 17 17 17 17 17 17 17 17 17 17 17 17 17 17 17 17 17 17 17 17 17 16 17 17 17 17 17 17 17 16 16 16 16 16 15 15 15 14 14 14 14 14 14 14 13 13 13 12 12 12 12 12 12 12 12 12
15 15 16 16 16 16 16 17 17 17 17 17 17 17 17 17 17 16 16 17 17 16 17 17 17 17 17 17 16 17 17 17 17 17 17 17 17 16 16 16 15 15 15 15 14 14 14 14 14 14 13 13 13 12 12 11 11 12 12 12 12 12 12
15 15 15 15 15 16 16 16 16 16 16 17 17 17 17 17 17 17 17 17 17 16 16 16 16 16 17 16 17 17 17 17 17 17 17 17 17 17 17 17 16 15 15 15 15 14 14 14 14 13 13 12 12 11 10 10 10 11 12 12 12 11 11
15 15 15 15 15 15 16 16 16 16 16 16 16 16 16 16 17 17 17 17 17 17 17 17 16 16 16 16 17 17 17 17 17 17 16 16 16 16 16 17 16 15 14 14 14 14 14 14 13 13 12 12 11 10 10 10 10 10 12 12 11 11 11
14 14 15 15 15 15 15 15 15 15 16 16 16 16 16 16 16 16 16 17 17 17 17 17 17 16 16 16 16 16 16 16 16 16 16 16 16 16 16 16 16 16 15 14 13 14 14 14 14 13 12 12 11 11 11 10 10 10 11 11 11 11 11
14 14 14 14 14 15 15 15 15 15 15 15 15 16 16 15 16 16 16 16 16 16 16 17 17 16 16 16 16 16 16 16 16 16 16 16 16 16 16 16 16 16 16 15 13 13 14 14 14 13 12 11 11 11 11 11 10 11 11 11 11 11 11
13 13 14 14 14 14 14 14 15 15 15 15 15 15 15 16 16 16 16 16 16 16 16 16 16 16 16 16 16 16 16 16 16 15 15 15 16 16 16 17 16 17 16 15 14 13 14 14 13 12 11 11 11 11 11 11 11 11 11 11 11 11 11
13 13 13 13 14 14 14 14 14 15 15 15 15 15 15 15 16 16 16 15 15 15 15 15 15 16 16 16 16 16 16 16 16 16 15 15 15 15 15 16 16 16 16 16 14 13 12 12 12 11 11 11 11 11 11 11 11 11 11 11 11 10 11
13 13 13 13 13 14 14 14 14 15 15 15 15 15 15 15 15 16 16 16 16 15 15 15 15 15 15 15 15 15 16 16 16 15 15 15 15 15 15 15 15 15 16 16 14 12 11 10 10 10 11 11 11 11 11 11 11 11 11 11 10 10 11
12 13 13 13 13 13 14 14 14 14 14 14 14 15 15 15 15 15 15 15 15 15 15 15 15 15 15 15 14 15 15 15 15 15 15 14 14 14 14 14 14 14 15 15 13 11 10 10 10 10 10 11 10 11 11 11 11 11 11 10 10 10 10

ECMWFFLT1_700_temp_024.txt.gz
Temp
18 18 18 18 17 17 17 17 16 16 16 15 15 15 15 14 14 14 14 14 14 14 14 14 14 14 14 14 14 14 14 14 13 13 13 13 13 13 12 12 12 12 12 11 11 10 10 10 9 10 10 10 11 11 11 11 11 11 11 11 10 10 10
18 18 18 18 18 17 17 17 16 16 16 16 15 15 15 15 14 14 14 14 14 14 14 14 14 14 14 14 14 14 14 14 14 13 13 13 13 13 13 12 12 12 12 11 11 10 10 10 9 10 10 10 11 11 12 12 11 11 11 11 10 10 10
19 19 19 19 18 18 18 17 17 17 16 16 16 15 15 15 15 15 15 14 14 14 14 15 14 14 14 14 14 14 14 14 14 13 13 13 13 13 13 12 12 12 12 12 11 10 10 10 10 10 10 11 11 11 12 12 11 11 11 11 11 10 10
19 19 19 19 19 18 18 18 17 17 17 16 16 16 16 16 15 15 15 15 15 15 15 15 15 15 14 14 14 14 14 14 14 14 13 13 13 13 13 13 12 12 12 12 12 11 10 10 10 10 10 11 11 12 12 12 12 11 11 11 11 10 10
19 19 19 19 19 19 18 18 18 17 17 17 16 16 16 16 16 15 15 15 15 15 15 14 14 15 14 14 14 14 14 14 14 13 13 13 13 13 13 13 13 13 13 12 12 11 11 11 10 10 11 11 12 12 12 12 12 11 11 11 11 10 10
19 19 19 19 19 19 19 19 18 18 18 17 17 16 16 16 16 16 16 15 15 15 15 14 14 14 14 14 14 14 14 14 13 13 13 13 13 13 13 13 13 13 13 12 12 12 11 11 11 11 11 12 12 12 12 12 12 11 11 11 11 11 10
19 19 19 20 20 20 19 19 19 18 18 17 17 17 16 16 16 16 16 16 16 15 15 15 15 15 14 14 14 14 14 14 14 13 13 13 13 13 13 13 13 13 13 13 12 12 12 12 12 12 12 12 12 12 12 12 12 11 11 11 11 10 10
19 20 20 20 20 20 20 19 19 19 18 18 17 17 17 16 16 16 16 16 16 16 15 15 15 15 15 14 14 14 14 14 14 13 13 13 13 14 14 13 13 13 13 13 13 12 12 12 12 12 12 12 12 12 12 12 12 11 11 11 11 11 10
19 19 19 19 20 20 20 20 19 19 18 18 18 17 17 16 16 16 16 16 16 16 16 16 15 15 15 15 14 14 14 14 14 14 14 14 14 14 14 13 13 13 13 13 13 13 12 12 12 12 12 12 12 12 12 12 12 11 11 11 11 11 11
19 19 19 19 19 20 20 19 19 19 18 18 18 17 17 17 16 16 16 16 16 16 16 16 16 15 15 15 15 14 14 14 14 15 15 15 14 14 14 13 13 13 14 14 13 13 13 13 13 13 13 13 12 12 12 12 12 11 11 11 11 11 11
19 19 19 19 19 19 20 20 19 19 19 18 17 17 17 17 17 17 17 16 16 16 16 16 16 15 15 15 15 15 14 14 15 15 15 15 15 15 14 14 13 14 14 14 14 13 13 13 13 13 13 13 12 12 12 12 12 11 11 11 11 11 11
19 19 19 19 19 19 20 20 19 19 19 18 18 17 17 17 17 17 17 17 17 17 16 16 16 16 16 16 15 15 15 15 15 15 15 15 15 15 14 14 14 14 14 14 14 14 14 13 13 13 13 13 12 12 12 12 12 12 11 11 11 11 11
19 19 19 19 19 19 20 20 19 19 19 18 18 18 18 17 17 17 17 17 17 17 17 16 16 16 16 16 16 16 15 15 15 15 15 15 15 15 15 14 14 14 14 14 14 14 14 14 14 13 13 13 13 12 12 12 12 12 12 11 11 11 11
19 19 19 19 19 19 20 20 19 19 19 19 18 18 18 18 17 17 17 17 17 17 17 17 16 16 16 16 16 16 16 15 15 15 15 15 15 15 15 15 14 14 14 14 14 14 14 14 14 13 13 13 13 12 12 12 12 12 12 11 11 11 11
19 19 19 19 19 19 20 20 19 19 19 19 19 18 18 18 18 18 17 17 17 17 17 17 17 17 16 16 17 17 16 16 15 15 15 15 15 15 15 15 15 15 14 14 14 14 14 14 14 14 13 13 13 13 12 12 12 12 12 11 11 11 11
19 19 19 19 19 19 20 20 20 20 20 19 19 18 18 18 18 18 18 17 17 17 17 17 17 17 17 17 17 17 16 16 15 15 15 15 15 15 15 15 15 15 15 14 14 14 14 14 14 14 13 13 13 13 12 12 12 12 12 12 11 11 11
18 19 19 19 19 19 20 20 20 20 20 20 19 19 18 18 18 18 18 18 18 18 17 17 17 17 17 17 17 17 16 16 16 16 15 15 15 15 15 15 15 15 15 15 14 14 14 14 14 14 13 13 13 13 13 12 12 12 12 12 12 12 12
18 18 19 19 19 19 20 20 20 20 20 20 19 19 19 19 18 18 18 18 18 18 18 18 17 17 17 18 17 17 17 17 16 16 16 15 15 15 15 15 15 15 15 15 15 14 14 14 14 14 14 13 13 13 13 12 12 12 12 12 12 12 12
18 18 18 19 19 19 19 20 20 20 20 20 19 19 19 19 19 19 19 19 19 18 18 18 18 18 18 18 17 17 17 17 16 16 16 16 15 14 15 15 15 15 15 15 15 15 14 14 14 14 14 14 13 13 13 13 12 12 12 12 12 12 12
18 18 18 19 19 19 19 20 20 20 20 20 20 20 19 19 19 19 19 18 18 18 18 18 18 18 18 18 17 17 17 17 16 16 16 16 15 15 15 15 15 16 15 15 15 15 15 15 14 14 14 14 13 13 13 13 13 13 13 13 13 13 13
18 18 18 19 19 19 19 19 20 20 19 19 20 20 19 19 19 19 19 18 18 18 18 18 18 18 18 18 17 17 17 17 17 17 16 16 16 15 15 15 15 16 15 15 15 15 15 15 14 14 14 14 14 13 13 13 13 13 13 13 13 13 13
18 18 18 19 19 19 19 19 20 20 19 19 19 19 19 19 19 19 19 19 18 18 18 18 18 18 18 18 18 17 17 17 18 17 17 16 16 16 15 15 15 16 16 15 15 15 15 15 15 15 14 14 14 13 13 13 13 13 13 13 13 13 13
18 18 18 19 19 19 19 19 19 20 20 19 19 19 19 19 19 19 19 18 18 18 18 18 18 18 18 18 18 18 18 18 18 17 17 16 16 16 16 15 15 15 16 15 15 15 15 15 15 15 15 14 14 14 13 13 13 13 13 13 13 13 13
18 18 18 18 19 19 19 19 19 19 20 19 19 19 19 19 19 19 19 18 18 18 18 18 18 18 18 18 18 18 18 18 18 17 17 17 17 17 16 16 15 15 15 16 15 15 15 15 15 15 15 15 14 14 14 14 14 13 13 13 13 13 13
18 18 18 18 19 19 19 19 19 19 19 19 19 19 19 19 19 19 19 19 18 18 18 18 18 18 18 18 18 18 18 18 18 17 17 17 17 17 17 16 15 15 15 15 15 15 15 15 15 15 15 15 15 14 14 14 14 14 14 13 13 13 13
18 18 18 18 18 18 19 19 19 19 19 19 19 19 19 19 19 19 19 19 18 18 18 18 18 18 18 18 18 18 18 18 18 17 17 17 17 17 17 16 15 15 15 15 15 15 15 15 15 15 15 15 15 15 14 14 14 14 14 13 13 13 13
17 17 18 18 18 18 19 19 19 18 18 18 18 18 18 18 19 19 19 19 18 18 18 18 18 18 18 18 18 18 17 18 17 17 17 17 17 17 17 16 15 15 15 15 15 15 15 15 15 15 15 15 15 15 15 14 14 14 14 13 13 13 13
17 17 17 18 18 18 18 18 18 18 18 18 18 18 18 18 18 18 18 18 18 18 18 18 18 18 18 18 18 17 17 18 17 17 17 17 17 17 17 16 15 15 15 15 15 15 15 15 15 15 15 15 15 15 15 15 14 14 14 13 13 13 13
17 17 17 18 18 18 18 18 18 18 18 18 18 18 18 18 18 18 18 18 18 18 18 18 18 18 17 17 17 17 17 17 17 17 17 17 17 17 17 17 16 16 15 15 15 15 15 15 15 15 15 14 14 14 14 14 14 14 13 13 13 13 13
16 16 17 17 17 17 17 17 17 17 17 17 17 18 18 18 18 18 18 18 18 18 18 18 17 17 17 17 17 17 17 17 17 17 17 17 17 17 17 17 17 16 16 16 15 15 15 15 15 15 15 14 14 14 14 14 14 14 13 13 13 13 13
16 16 16 17 17 17 16 16 17 17 17 17 17 17 17 17 17 18 18 18 18 17 17 17 17 17 17 17 17 17 17 17 17 17 16 16 16 16 16 16 16 16 16 16 15 15 15 15 15 15 15 14 14 14 14 14 14 13 13 12 13 13 13
15 16 16 16 16 16 16 16 16 16 16 17 17 17 17 17 17 17 17 17 17 17 17 17 17 17 17 17 17 17 17 16 16 16 16 16 16 16 16 16 16 16 16 16 15 15 15 15 15 15 15 15 15 14 14 14 13 13 12 12 12 12 12
15 15 15 16 16 16 16 16 16 16 16 16 16 16 16 17 17 17 17 17 17 17 17 17 17 17 17 16 16 16 16 16 16 16 16 16 16 16 16 16 16 16 16 16 16 15 15 15 15 15 15 15 15 15 14 14 13 12 12 12 11 11 12
15 15 15 15 15 16 16 16 16 16 16 16 16 16 16 16 16 16 16 16 16 16 16 17 17 17 17 16 16 16 17 17 17 16 16 16 16 16 16 16 16 16 16 16 16 16 16 16 15 15 15 15 15 15 14 14 13 12 12 12 11 11 12
14 15 15 15 15 15 15 15 15 15 16 16 16 16 16 16 16 16 16 16 16 16 16 16 16 16 16 16 17 17 17 17 17 17 16 16 16 16 16 16 16 16 16 16 16 16 16 16 15 15 15 15 15 15 14 14 13 13 12 11 11 11 11
13 14 14 14 14 14 14 14 15 15 15 15 15 15 15 16 16 16 16 16 16 16 16 16 16 16 16 16 16 16 16 17 17 17 17 17 16 16 16 16 16 16 16 16 16 16 16 16 16 15 14 14 14 14 14 13 12 12 11 11 10 10 10
13 13 13 13 13 14 14 14 14 14 14 14 15 15 15 15 15 15 15 16 16 16 16 16 16 16 16 16 16 16 16 16 16 16 16 16 16 16 16 16 16 16 15 15 15 15 16 16 15 15 14 14 14 13 12 11 10 10 10 10 10 10 10
12 13 13 13 13 13 14 14 14 14 14 14 14 14 14 14 15 15 15 15 15 15 16 16 16 16 16 16 16 16 16 16 15 15 16 16 16 16 16 16 16 16 16 15 15 15 15 15 15 15 14 14 13 12 11 10 10 9 9 9 10 10 10

ECMWFFLT1_700_temp_027.txt.gz
Temp
18 18 18 18 17 17 17 16 16 16 15 15 15 15 15 14 14 14 14 14 14 14 14 14 14 14 14 14 14 14 13 13 13 13 13 13 13 13 13 12 12 12 12 12 11 11 11 10 10 10 10 10 10 11 11 11 11 11 11 11 10 10 10
18 18 18 18 18 18 17 17 16 16 16 15 15 15 15 15 14 14 14 14 14 14 14 14 14 14 14 14 14 14 14 14 14 13 13 13 13 13 13 13 12 12 12 12 11 11 11 11 10 10 10 10 10 11 11 12 11 11 11 11 11 10 10
18 18 18 18 18 18 18 17 17 16 16 16 15 15 15 15 15 15 15 14 14 14 14 14 14 14 14 14 14 14 14 14 14 14 14 13 13 13 13 13 12 12 12 12 12 11 11 11 11 10 10 10 11 11 11 12 12 12 11 11 11 10 10
18 18 18 18 19 19 19 18 18 17 17 16 16 16 15 15 15 15 15 15 14 14 14 14 14 14 14 14 14 14 14 14 14 14 14 14 13 13 13 13 13 12 12 12 12 12 11 11 11 11 11 11 11 11 12 12 12 12 11 11 11 11 10
18 19 19 19 19 19 19 19 19 18 17 17 16 16 16 15 15 15 15 14 14 14 14 14 14 14 14 14 14 14 14 14 14 14 14 14 14 13 13 13 13 13 12 12 12 12 12 11 11 11 11 11 11 12 12 12 12 12 12 11 11 11 11
18 19 19 19 19 19 19 19 19 19 18 17 17 17 16 16 15 15 15 15 15 15 14 14 14 14 14 14 14 14 14 14 14 14 14 14 14 13 13 13 13 13 13 12 12 12 12 12 11 11 11 11 12 12 12 12 12 12 12 11 11 11 11
19 19 19 19 19 19 19 19 19 19 19 18 18 17 17 16 16 16 15 15 15 15 15 14 14 14 14 14 14 14 14 14 14 14 14 14 14 14 13 13 13 13 13 13 12 12 12 12 12 11 11 12 12 12 12 12 12 12 12 12 11 11 11
19 19 19 19 19 19 19 19 19 19 19 19 18 18 17 17 16 16 16 16 15 15 15 15 15 15 14 14 14 14 14 14 14 14 14 14 14 13 13 13 13 13 13 13 13 13 12 12 12 12 12 12 12 12 13 13 12 12 12 12 11 11 11
19 19 19 19 19 19 19 19 19 19 19 19 19 18 17 17 17 16 16 16 16 15 15 15 15 15 15 14 14 14 14 14 14 14 14 14 13 13 13 13 13 13 13 13 13 13 13 12 12 12 12 12 13 13 13 13 12 12 12 12 11 11 11
18 19 19 19 19 19 19 19 19 19 19 19 19 19 18 17 17 17 16 16 16 16 16 16 15 15 15 15 14 14 14 14 14 14 14 14 14 13 13 13 13 13 13 13 13 13 13 13 12 12 12 13 13 13 13 13 13 12 12 12 11 11 11
18 18 18 19 19 19 19 19 19 19 19 19 19 19 18 18 17 17 17 16 16 16 16 16 16 15 15 15 15 15 14 14 14 14 14 14 14 14 13 13 13 13 13 13 13 13 13 13 13 13 13 13 13 13 13 13 13 13 12 12 12 11 11
18 18 18 18 18 18 19 19 19 19 19 19 20 19 19 18 18 17 17 17 17 16 16 16 16 16 16 15 15 15 15 14 14 14 14 14 14 14 14 14 14 14 14 14 14 13 13 13 13 13 13 13 13 13 13 13 13 13 12 12 12 11 11
18 18 18 18 18 18 19 19 19 19 19 19 20 19 19 18 18 18 17 17 17 17 16 16 16 16 16 16 15 15 15 15 15 15 14 14 14 14 14 14 14 14 14 14 14 14 14 14 14 14 14 14 14 13 13 13 13 13 12 12 12 11 11
18 18 18 18 18 18 18 19 19 19 19 19 20 20 19 19 18 18 17 17 17 17 16 16 16 16 16 16 16 15 15 15 15 15 15 14 14 14 14 15 15 15 15 15 14 14 14 14 14 14 14 14 14 14 13 13 13 13 12 12 12 12 11
18 18 18 18 18 18 18 19 19 19 19 19 19 20 19 19 18 18 17 17 17 17 17 17 17 16 16 16 16 16 16 16 15 15 15 14 14 14 15 15 15 15 15 15 15 14 14 14 14 14 14 14 14 14 14 13 13 13 12 12 12 12 12
18 18 18 18 18 18 19 19 19 19 19 19 19 19 19 19 19 18 18 17 17 17 17 17 17 17 16 16 16 16 16 16 16 15 15 15 15 14 14 15 15 16 16 15 15 15 15 15 14 14 14 14 14 14 14 13 13 13 13 12 12 12 12
17 17 17 18 18 18 19 19 19 19 19 19 19 19 19 19 19 18 18 18 18 18 17 17 17 17 17 17 17 16 16 16 16 16 16 15 15 15 15 15 15 15 16 16 15 15 15 15 15 15 14 14 14 14 14 13 13 13 13 12 12 12 12
17 17 17 18 18 18 18 19 19 19 19 19 19 19 19 19 19 18 18 18 18 18 18 17 17 17 17 17 17 16 16 16 16 16 16 16 15 15 15 15 15 15 15 16 16 16 16 15 15 15 14 14 14 14 14 14 13 13 13 13 12 12 12
17 17 17 18 18 18 18 18 19 19 19 19 19 20 19 19 19 19 18 18 18 18 18 17 17 17 17 17 17 17 17 16 16 16 16 16 16 16 15 15 15 15 15 15 16 16 16 16 15 15 15 14 14 14 14 14 14 13 13 13 12 12 12
17 17 17 17 18 18 18 18 18 19 19 19 20 20 19 19 19 19 19 18 18 18 18 18 17 17 17 17 17 17 17 17 17 16 16 16 16 16 15 15 15 15 15 15 15 15 16 16 15 15 15 15 14 14 14 14 14 13 13 13 13 12 12
17 17 17 17 17 18 18 18 18 19 19 19 19 20 20 19 19 19 19 18 18 18 18 18 18 18 18 17 17 17 17 17 17 17 17 16 16 16 16 15 15 15 15 15 15 15 15 15 16 15 15 15 14 14 14 14 14 13 13 13 13 12 12
17 17 17 17 17 17 18 18 18 19 19 19 19 20 20 20 19 19 19 19 19 18 18 18 18 18 18 18 18 18 17 17 17 17 17 17 16 16 16 16 15 15 15 15 15 15 15 15 15 15 15 15 14 14 14 14 14 14 13 13 13 12 12
17 17 17 17 17 18 18 18 18 19 19 19 19 20 20 20 19 19 19 19 19 19 18 18 18 18 18 18 18 18 18 17 17 17 17 17 16 16 16 16 15 15 15 15 15 15 15 15 15 15 15 15 15 15 14 14 14 14 13 13 13 13 12
17 17 17 17 17 18 18 18 18 18 19 19 19 19 20 19 19 19 19 19 19 19 19 19 18 18 18 18 18 18 18 17 17 17 17 17 17 17 16 16 16 15 15 15 15 15 15 15 15 15 15 15 15 15 15 14 14 14 14 13 13 13 13
17 17 17 17 17 18 18 18 18 18 19 19 19 19 19 19 19 19 19 19 19 19 19 19 19 18 18 18 18 18 18 17 17 17 17 17 17 17 17 16 16 16 16 16 16 15 15 15 15 15 15 15 15 15 15 14 14 14 14 14 13 13 13
17 17 17 17 17 17 18 18 18 19 19 19 19 19 19 19 19 19 19 19 19 19 19 19 19 19 19 18 18 18 18 17 18 18 18 17 17 17 17 17 17 17 16 16 16 16 15 15 15 16 15 15 15 15 15 15 14 14 14 14 13 13 13
17 17 17 17 17 17 17 18 18 18 19 19 19 19 19 19 19 19 19 19 19 19 19 19 19 19 19 18 18 18 18 18 18 18 18 18 18 17 17 17 17 17 17 16 16 16 16 16 16 16 16 15 15 15 15 15 15 14 14 14 14 13 13
17 17 17 17 17 17 17 18 18 18 18 19 19 19 19 19 19 19 19 19 19 19 19 19 19 19 19 19 18 18 18 18 18 18 18 18 18 18 17 17 17 17 17 16 16 16 16 16 16 16 16 15 15 15 15 15 15 15 14 14 14 13 13
16 17 17 17 17 17 17 17 18 18 18 18 19 19 19 19 19 19 19 19 19 19 19 19 19 19 19 19 18 18 18 18 18 18 18 18 17 17 17 17 17 17 17 16 16 16 16 16 16 16 15 15 15 15 15 15 15 15 15 14 14 14 13
16 16 16 16 17 17 17 17 17 18 18 18 18 18 18 18 18 18 18 19 18 19 19 19 19 19 19 18 18 18 18 18 18 17 17 17 17 17 17 17 17 17 17 16 16 16 16 16 16 16 15 15 15 15 15 15 15 15 15 15 14 14 14
15 15 16 16 16 17 17 17 17 17 18 18 18 18 18 18 18 18 18 18 18 18 18 18 18 18 18 18 18 18 18 18 18 18 17 17 17 17 17 17 17 17 17 16 16 16 15 15 15 15 15 15 16 16 16 15 15 15 15 15 15 14 14
14 15 15 15 16 16 16 17 17 17 17 17 17 17 18 18 18 18 18 18 18 18 18 18 18 18 18 18 18 18 18 17 17 17 17 17 17 17 17 17 17 17 17 16 16 16 16 16 15 15 15 15 15 16 16 15 15 15 15 15 14 14 14
14 14 15 15 15 15 15 16 16 16 17 17 17 17 17 17 17 18 18 18 18 18 18 18 18 18 17 17 17 18 17 17 17 17 17 17 17 17 17 17 17 17 16 16 16 16 16 16 16 15 15 15 15 15 15 15 15 15 15 15 14 14 14
14 14 14 14 15 15 15 15 16 16 16 17 17 17 17 17 17 17 17 17 17 17 17 17 17 17 17 17 17 17 17 17 17 17 17 17 17 17 17 17 17 17 17 16 16 16 16 16 16 15 15 15 14 14 14 14 14 15 15 15 14 14 14
13 14 14 14 14 15 15 15 15 16 16 17 17 17 17 17 17 17 17 17 17 17 17 17 17 17 17 17 17 17 17 17 17 17 17 17 17 17 17 17 17 16 16 16 16 16 16 16 16 16 16 15 14 14 14 14 14 14 14 14 14 14 14
13 13 14 14 14 14 15 15 15 15 16 16 16 16 16 16 16 17 17 17 17 17 17 17 16 17 17 17 17 17 17 17 17 17 17 17 17 17 17 17 16 16 16 16 16 16 16 16 16 16 16 16 15 15 15 14 14 14 13 13 13 13 13
13 13 13 13 14 14 14 14 14 15 15 15 15 15 16 16 16 16 16 16 16 16 16 16 16 16 16 16 16 17 17 17 17 17 17 17 17 17 17 17 17 17 17 17 17 17 16 16 16 16 16 16 16 16 15 15 15 14 14 13 12 11 11
12 12 12 13 13 13 13 14 14 14 14 14 15 15 15 15 16 16 16 16 16 16 16 16 16 16 16 16 16 16 16 16 16 16 16 16 16 16 16 16 16 16 16 16 16 16 16 16 16 16 16 16 16 16 16 15 15 14 14 14 13 11 10

ECMWFFLT1_700_temp_030.txt.gz
Temp
17 18 18 18 18 17 17 17 17 16 16 16 15 15 15 15 15 15 15 15 14 14 14 14 14 14 14 13 13 13 13 13 13 13 13 13 13 13 12 12 12 12 12 12 12 11 11 12 11 11 11 11 11 11 11 11 12 12 11 11 11 11 10
18 18 18 18 18 18 18 17 17 17 16 16 16 15 15 15 15 15 15 15 15 14 14 14 14 14 14 14 13 13 13 13 13 13 13 13 13 13 13 13 12 12 12 12 12 12 11 12 12 11 11 11 11 11 11 11 12 12 12 11 11 11 11
18 18 18 18 18 18 18 18 17 17 17 16 16 16 15 15 15 15 15 15 15 15 14 14 14 14 14 14 14 14 13 13 13 13 13 13 13 13 13 13 13 13 12 12 12 12 12 12 12 12 11 11 11 11 11 11 12 12 12 11 11 11 11
18 18 18 18 18 18 18 18 18 17 17 17 17 16 16 15 15 15 15 15 15 15 15 14 14 14 14 14 14 14 14 14 14 13 13 13 13 13 13 13 13 13 13 12 12 12 12 12 12 12 12 11 11 11 11 11 12 12 12 12 11 11 11
18 18 18 18 18 18 18 18 18 18 18 17 17 17 16 16 15 15 15 15 15 15 15 14 14 14 14 14 14 14 14 14 14 14 14 14 13 13 13 13 13 13 13 13 12 12 12 12 12 12 12 12 11 11 11 12 12 12 12 12 12 11 11
18 18 18 18 19 19 19 19 19 19 18 18 17 17 16 16 16 15 15 15 15 15 15 15 14 14 14 14 14 14 14 14 14 14 14 14 14 14 14 13 13 13 13 13 13 13 12 12 12 12 12 12 12 11 11 12 12 12 12 12 12 12 11
19 19 19 19 19 19 19 19 19 19 18 18 18 17 17 16 16 16 15 15 15 15 15 15 15 15 15 15 14 14 14 14 14 14 14 14 14 14 14 14 14 13 13 13 13 13 13 13 13 12 12 12 12 12 12 12 12 12 12 12 12 12 12
19 19 19 19 19 19 19 19 19 19 19 18 18 18 17 17 16 16 16 16 15 15 15 15 15 15 15 15 15 15 14 14 14 14 14 14 14 14 14 14 14 14 13 13 13 13 13 13 13 13 12 12 12 12 12 12 12 12 12 12 12 12 12
18 19 19 19 19 19 19 19 19 19 19 19 18 18 18 17 17 17 16 16 16 15 15 15 15 15 15 15 15 15 14 14 14 14 14 14 14 14 14 14 14 14 14 13 13 13 13 13 13 13 13 12 12 13 12 12 12 12 13 13 12 12 12
18 18 19 18 19 19 19 19 19 19 19 19 19 18 18 18 18 17 17 16 16 16 16 15 15 15 15 15 15 14 14 14 14 14 14 14 14 14 14 14 14 14 14 13 13 13 13 13 13 13 13 13 12 13 13 13 12 12 13 13 13 12 12
18 18 18 18 18 18 19 19 19 19 19 19 19 19 18 18 18 18 17 17 17 16 16 16 16 16 15 15 15 15 14 14 14 14 14 14 14 14 14 14 14 14 14 14 13 13 13 13 13 13 13 13 13 13 13 13 13 13 13 13 13 12 12
18 18 18 18 18 18 18 18 19 19 19 19 19 19 19 19 18 18 18 17 17 17 16 16 16 16 16 15 15 15 15 15 14 14 14 14 14 14 14 14 14 14 14 14 13 13 13 13 13 13 13 13 13 13 13 13 13 13 13 13 13 13 12
18 18 18 18 18 18 18 18 18 19 19 19 19 19 19 19 18 18 18 18 17 17 16 16 16 16 16 16 15 15 15 15 15 15 14 14 14 14 14 14 14 14 14 14 14 13 14 14 14 13 13 13 13 13 13 13 13 13 13 13 13 13 12
17 18 18 18 18 18 18 18 18 18 19 19 19 19 19 19 19 19 18 18 18 17 17 16 16 16 16 16 16 16 15 15 15 15 15 14 14 14 14 14 14 14 14 14 14 14 14 14 14 13 13 13 13 13 13 13 13 13 13 13 13 13 13
17 17 18 18 18 18 18 18 18 18 19 19 19 19 19 19 19 19 19 19 18 17 17 17 17 16 16 16 16 16 16 15 15 15 15 15 15 14 14 14 14 14 15 15 15 14 14 14 14 14 13 13 13 13 13 13 13 14 14 14 13 13 13
17 17 17 18 18 18 18 18 18 18 19 19 19 19 19 19 19 19 19 19 18 18 17 17 17 17 16 16 17 16 16 16 16 15 15 15 15 15 15 14 14 15 15 15 15 15 15 15 15 14 14 14 14 13 13 14 14 14 14 14 14 13 13
17 17 17 17 18 17 17 18 18 18 18 18 19 19 19 19 19 19 19 19 19 18 18 17 17 17 17 17 17 16 16 16 16 16 16 15 15 15 15 14 14 15 15 15 16 15 15 15 15 15 15 14 14 14 14 14 14 14 14 14 14 14 13
17 16 17 17 17 17 17 17 18 18 18 18 19 19 19 19 19 19 19 19 19 18 18 17 17 17 17 17 17 16 16 16 16 16 16 16 16 15 15 15 15 15 15 15 15 16 15 15 15 15 15 15 14 14 14 14 14 14 14 14 14 14 13
17 17 17 17 17 17 17 17 17 18 18 18 18 19 19 19 19 19 19 19 19 18 18 18 17 17 17 17 17 17 17 17 16 16 16 16 16 15 15 15 15 15 15 15 15 15 15 15 15 15 15 15 15 15 15 15 15 15 14 14 14 14 14
16 17 17 17 17 17 17 17 17 18 18 18 18 18 19 19 19 19 19 19 19 18 18 18 18 17 17 17 17 17 17 17 16 16 16 16 16 16 15 15 15 15 15 15 15 15 15 15 15 15 15 15 15 15 15 16 15 15 15 14 14 14 14
16 16 17 17 17 17 17 17 17 18 18 18 18 18 19 19 19 19 19 19 19 19 19 18 18 18 18 18 17 17 17 17 17 16 16 16 16 16 16 16 15 15 15 15 15 15 15 15 15 15 15 15 15 16 16 16 16 15 15 15 14 14 14
16 16 17 17 17 17 17 17 18 18 18 18 18 18 18 19 19 19 19 19 19 19 19 18 18 18 18 18 18 17 17 17 17 17 17 16 16 16 16 16 16 16 15 15 15 15 15 15 15 15 15 15 15 15 16 16 16 16 15 15 14 14 14
16 17 17 17 17 17 17 17 18 18 18 18 18 18 19 19 19 19 19 19 19 19 19 19 18 18 18 18 18 18 17 17 17 17 17 17 17 16 16 16 16 16 16 15 15 15 15 15 15 15 15 15 15 15 16 16 16 16 16 15 15 14 14
16 17 17 17 17 17 17 18 18 18 18 18 18 18 19 19 19 19 19 19 19 19 19 19 19 18 18 18 18 18 18 18 18 17 17 17 17 17 17 17 16 16 16 16 16 16 15 15 15 15 15 15 15 15 15 16 16 16 16 15 15 14 14
16 17 17 17 17 17 18 18 18 18 18 18 18 18 18 19 19 19 19 19 19 19 19 19 19 19 18 18 18 18 18 18 18 18 17 17 17 17 17 17 17 17 16 16 16 16 16 15 15 15 15 15 15 15 15 15 15 16 16 16 15 15 14
16 17 17 17 17 17 18 18 18 18 18 18 18 18 19 19 19 19 19 19 19 19 19 19 19 19 18 18 18 18 18 18 18 18 18 18 18 18 17 17 17 17 17 17 17 16 16 16 16 16 15 16 16 16 16 16 15 16 16 16 15 15 14
16 17 17 17 17 17 17 18 17 18 18 18 18 18 19 19 19 19 19 19 19 19 19 19 19 19 18 18 18 18 18 18 18 18 18 18 18 18 18 18 18 17 17 17 17 17 16 16 16 16 16 16 16 16 16 16 16 16 16 16 16 15 15
16 16 17 17 17 17 17 18 17 17 18 18 18 18 19 19 19 19 19 19 19 19 19 19 19 19 19 19 19 19 19 19 19 19 18 18 18 18 18 18 18 18 18 17 17 17 17 16 16 16 16 16 16 16 16 16 16 16 16 16 16 15 15
16 16 17 17 17 17 17 18 18 17 18 18 18 18 18 19 19 19 19 19 19 19 19 19 19 19 19 19 19 19 19 19 19 19 19 18 18 18 18 18 18 18 18 17 17 17 17 17 16 16 16 16 16 17 17 17 16 16 16 16 16 15 15
16 16 16 17 17 17 17 17 18 17 17 18 18 18 18 18 19 19 19 19 19 19 19 19 19 19 19 19 19 19 19 19 19 19 19 19 18 18 18 18 18 18 18 18 17 17 17 17 17 16 16 16 17 17 17 17 17 16 16 17 16 15 14
16 16 16 16 17 17 17 17 17 17 17 17 18 18 18 18 18 18 18 18 18 19 19 19 19 19 19 19 19 19 19 19 19 19 19 19 18 18 18 18 18 18 18 18 17 17 17 17 17 17 17 17 17 17 17 17 17 16 16 17 16 15 15
16 16 16 16 16 16 17 17 17 17 17 17 17 17 18 18 18 18 18 18 18 18 18 18 19 19 19 19 19 18 18 18 18 18 18 18 18 18 18 18 18 18 18 18 18 17 17 17 17 17 17 17 17 17 16 16 16 16 17 17 16 16 16
15 15 15 15 15 16 16 16 16 16 17 17 17 17 17 17 17 17 17 17 18 18 18 18 18 18 18 18 18 18 18 18 18 18 18 18 18 18 18 18 17 18 18 17 17 17 17 17 17 17 16 16 16 16 16 16 16 17 17 17 17 17 16
15 15 15 15 15 15 15 15 16 16 16 17 17 17 17 17 17 17 17 17 17 18 18 18 18 18 18 18 18 18 18 18 18 18 17 17 17 17 17 17 17 17 17 17 17 17 17 17 17 17 16 16 16 16 16 16 16 16 16 17 17 17 16
13 14 14 14 14 14 14 15 15 16 16 16 16 17 17 17 17 17 17 17 17 17 17 17 17 17 18 18 18 18 18 18 18 17 17 17 17 17 17 17 17 17 17 17 17 17 17 17 17 17 16 16 16 16 16 16 16 16 16 16 16 16 16
12 13 13 13 13 14 14 14 15 15 15 15 16 16 16 17 17 17 17 17 17 17 17 17 17 17 17 17 17 17 17 17 17 17 17 17 17 17 17 17 17 17 17 17 17 17 17 17 17 16 16 16 16 16 16 16 16 16 16 16 16 16 16
12 12 13 13 13 14 14 14 14 15 15 15 15 15 16 16 16 16 16 16 16 16 16 16 16 16 16 16 17 17 17 17 17 17 17 17 17 17 17 17 17 17 17 17 17 17 17 17 17 17 16 15 15 15 15 16 16 16 16 16 16 16 16
12 12 13 13 13 13 14 14 14 14 14 15 15 15 15 15 15 15 15 16 16 16 16 16 16 16 16 16 16 16 16 16 16 16 16 17 17 17 17 17 17 17 17 17 17 17 17 17 17 17 16 16 15 15 15 15 15 15 15 15 15 15 15

ECMWFFLT1_700_temp_033.txt.gz
Temp
16 16 16 17 17 17 17 17 17 17 17 17 16 16 16 15 15 15 15 15 14 14 14 14 14 14 14 14 14 13 13 13 13 13 13 13 12 12 12 12 12 12 12 12 12 12 12 12 11 11 11 11 11 11 11 11 11 11 11 11 11 11 11
16 16 16 16 17 17 17 17 17 17 17 17 17 16 16 15 15 16 16 15 15 14 14 14 14 14 14 14 14 14 13 13 13 13 13 13 13 13 13 13 12 12 12 12 12 12 12 12 12 12 12 11 11 11 11 11 11 11 11 11 11 11 11
17 17 16 16 17 17 17 17 18 18 18 17 17 17 16 16 16 16 16 16 15 15 15 14 14 14 14 14 14 14 14 13 13 13 13 13 13 13 13 13 13 13 13 12 12 12 12 12 12 12 12 12 12 11 11 11 11 11 11 12 12 11 11
17 17 16 16 17 18 18 18 18 18 18 18 17 17 17 17 16 16 16 16 16 15 15 15 15 14 14 14 14 14 14 14 14 14 13 13 13 13 13 13 13 13 13 13 13 13 13 12 12 12 12 12 12 12 12 12 12 11 11 12 12 12 11
17 17 17 17 16 17 18 18 18 18 18 18 18 17 17 17 16 16 16 16 15 15 15 15 15 15 14 14 14 14 14 14 14 14 14 13 13 13 13 13 13 13 13 13 13 13 13 13 13 12 12 12 12 12 12 12 12 12 11 12 12 12 12
18 17 17 17 16 16 17 18 18 18 18 18 18 17 17 17 17 16 16 16 15 15 15 15 15 15 15 15 14 14 14 14 14 14 14 14 13 13 13 13 13 13 13 13 13 13 13 13 13 13 12 12 12 12 12 12 12 12 12 12 12 12 12
18 17 17 17 17 17 18 18 18 18 18 18 18 18 17 17 17 17 16 16 16 15 15 15 15 15 15 15 15 14 14 14 14 14 14 14 14 14 13 13 13 13 13 13 13 13 13 13 13 13 13 13 12 12 12 12 12 12 12 12 12 12 12
18 17 17 17 16 16 17 18 19 18 18 18 18 18 18 17 17 17 17 16 16 16 15 15 16 16 16 15 15 15 15 14 14 14 14 14 14 14 14 14 13 14 13 13 13 13 13 13 13 13 13 13 13 12 12 12 12 12 12 12 12 12 12
18 18 17 17 16 16 16 17 18 19 19 18 18 18 18 18 17 17 17 17 16 16 16 16 16 16 16 16 16 15 15 15 14 14 14 14 14 14 14 14 14 14 14 13 13 13 13 13 13 13 13 13 13 13 12 13 12 12 12 12 12 12 12
19 18 17 17 17 17 17 17 17 19 19 18 18 18 18 18 18 18 17 17 17 17 16 16 16 16 16 16 16 16 15 15 15 15 14 14 14 14 14 14 14 14 14 14 14 13 13 13 13 13 13 13 13 13 13 13 13 13 12 12 12 12 12
19 18 17 17 17 17 17 16 17 19 19 18 18 18 18 18 18 18 18 17 17 17 17 16 16 16 16 16 16 16 16 16 15 15 15 15 14 14 14 14 14 14 14 14 14 14 14 14 13 13 13 13 13 13 13 13 13 13 13 13 12 12 12
18 18 17 17 17 17 17 17 18 19 19 18 18 18 18 18 18 18 18 18 17 17 17 16 16 16 16 16 16 16 16 16 15 15 15 15 15 15 14 14 14 14 14 14 14 14 14 14 14 14 14 14 13 13 13 13 13 13 13 13 13 13 12
17 17 17 17 18 18 18 18 18 19 19 19 19 18 19 18 18 18 18 18 18 17 17 17 16 16 16 16 16 16 16 16 15 15 15 15 15 15 14 14 14 14 14 14 14 14 14 14 14 14 14 14 13 13 13 13 13 13 13 13 13 13 13
17 17 17 18 18 18 18 18 18 18 18 19 19 19 19 19 18 18 18 18 18 17 17 17 17 16 16 16 16 16 16 16 15 15 15 15 15 14 14 14 14 14 14 14 14 14 14 14 14 14 14 14 14 13 13 13 13 13 13 13 13 13 13
17 17 18 18 18 18 18 18 18 18 18 18 18 19 19 19 19 19 19 19 18 18 17 17 17 17 17 17 16 16 16 16 16 15 15 15 15 15 15 14 14 14 14 14 14 14 14 14 14 14 14 14 14 14 13 13 13 13 13 13 13 13 14
17 18 18 17 18 18 18 18 18 18 18 18 18 18 19 19 19 19 19 19 18 18 18 17 18 17 17 17 17 16 16 16 16 16 15 15 15 15 15 15 14 14 14 14 14 15 14 14 14 14 14 14 14 14 14 14 14 14 14 13 13 13 13
17 17 17 17 17 17 17 18 18 18 18 18 18 18 19 19 19 19 19 19 19 19 18 18 18 18 18 17 17 17 16 16 16 16 15 15 15 15 15 15 15 15 14 14 14 14 14 14 14 14 15 15 14 14 14 14 15 15 14 14 13 13 13
16 16 16 16 16 17 17 17 17 17 18 18 18 18 19 19 19 19 19 19 19 19 18 18 18 19 18 18 17 17 17 16 16 16 16 16 15 15 15 15 15 15 15 14 14 14 15 15 14 14 15 15 15 15 15 15 15 15 15 15 14 14 13
15 15 16 16 16 16 16 16 16 17 18 18 18 18 18 18 19 19 19 19 19 19 19 19 19 19 19 18 18 17 17 17 16 16 16 16 16 16 15 15 15 15 15 15 14 14 15 15 15 15 15 15 15 15 15 15 15 16 15 15 15 14 14
15 15 15 15 15 15 15 15 16 17 17 17 18 18 18 18 19 19 19 18 18 19 19 19 19 19 19 18 18 18 18 17 17 17 16 16 16 16 16 16 16 15 15 15 15 15 15 15 15 15 15 15 16 16 16 16 16 16 16 16 15 15 14
16 17 16 16 16 16 16 17 17 17 17 17 18 18 18 18 19 19 19 19 19 19 19 19 19 19 19 19 18 18 18 17 17 17 17 16 16 16 16 16 16 16 16 15 15 15 16 16 16 16 16 15 15 16 16 16 16 16 16 16 15 15 15
17 16 16 16 17 17 17 17 17 17 17 17 18 18 18 18 18 19 19 19 19 19 19 19 19 19 19 19 18 18 18 17 17 17 17 17 16 16 16 16 16 16 16 16 16 16 16 16 16 16 16 16 15 15 16 16 16 16 16 16 15 15 15
15 15 16 17 17 17 17 17 17 17 17 17 18 18 18 18 18 18 19 19 19 19 19 19 19 19 19 19 18 18 18 17 17 17 17 17 17 17 17 17 17 16 16 16 16 16 16 16 16 16 16 16 16 16 16 16 16 16 16 16 15 15 15
15 16 17 17 17 17 17 18 17 17 18 18 18 18 18 18 18 18 19 19 19 19 19 19 19 19 19 19 19 18 18 18 18 17 17 17 17 17 17 17 17 16 16 16 16 16 16 16 16 16 16 16 16 16 16 16 16 16 16 16 16 15 15
16 16 16 16 16 17 17 17 17 18 18 18 18 18 18 18 18 18 18 19 19 19 19 20 20 19 19 19 19 18 18 18 18 18 17 17 17 17 17 17 17 17 17 16 16 16 16 16 16 16 16 16 16 16 16 16 16 16 16 16 16 16 15
16 16 16 16 16 17 17 17 17 17 18 18 18 18 18 18 18 18 18 18 19 19 19 19 19 19 19 18 18 18 18 18 18 18 18 18 17 17 17 17 17 17 17 17 17 16 16 16 16 16 16 16 16 16 17 17 17 17 17 16 16 16 16
15 16 16 16 16 16 17 17 17 17 18 18 18 18 18 18 18 18 18 18 19 19 19 19 19 19 19 19 18 18 18 18 18 18 18 18 17 17 17 17 17 17 17 17 17 17 17 16 16 16 16 17 17 17 17 17 17 17 17 17 17 17 16
15 16 16 16 16 16 17 17 17 17 18 18 18 18 18 18 18 18 18 19 19 19 19 19 19 19 19 19 19 18 18 18 18 18 18 18 18 18 18 18 17 17 17 17 17 17 17 17 17 17 17 17 17 17 17 18 18 18 18 17 17 17 17
15 15 16 16 16 16 17 17 17 17 17 18 18 18 18 18 18 18 18 19 19 19 19 19 19 19 19 19 19 19 18 18 18 18 18 18 18 18 18 18 18 18 18 17 17 17 17 17 17 17 17 17 17 17 18 18 18 18 18 18 17 17 17
15 15 15 16 16 16 16 17 17 17 17 17 18 18 18 18 18 18 18 19 19 19 19 19 19 19 19 19 19 19 18 18 18 18 18 18 18 18 18 18 18 18 18 18 18 17 17 17 17 17 17 17 17 17 18 18 18 18 18 18 17 17 17
15 15 15 16 16 16 16 16 17 17 17 17 17 17 17 18 18 18 18 18 19 19 19 19 19 19 19 19 19 19 18 18 18 18 18 18 18 18 18 18 18 18 18 18 18 18 18 18 17 17 17 17 17 18 18 18 18 18 18 18 17 17 17
14 15 15 15 16 16 16 16 17 17 17 17 17 17 17 17 18 18 18 18 18 19 19 19 19 19 19 19 19 19 18 18 18 18 18 18 18 18 18 18 18 18 18 18 18 18 18 18 18 18 17 17 17 17 17 17 17 17 17 17 17 17 17
14 15 15 15 16 16 16 16 16 17 17 17 17 17 17 17 17 18 18 18 18 18 19 19 19 19 18 18 19 19 18 18 18 18 18 18 18 18 18 18 18 18 18 18 18 18 18 18 17 17 17 17 17 17 17 17 17 17 17 17 17 17 17
14 15 15 15 15 16 16 16 16 16 17 17 17 17 17 17 17 17 18 18 18 18 18 18 18 18 18 18 18 18 18 18 18 18 18 18 18 18 18 18 18 17 17 17 17 17 17 17 17 17 16 16 16 16 16 16 16 16 16 16 16 16 17
14 15 15 15 15 15 16 16 16 16 17 17 16 16 16 17 17 17 17 17 17 17 17 17 17 17 17 17 17 18 18 18 18 18 17 17 17 17 17 17 17 17 17 17 16 16 16 16 16 16 16 16 16 16 16 16 16 16 16 16 16 16 16
14 14 14 15 15 15 15 15 16 16 16 16 16 16 16 16 16 16 17 17 17 17 17 17 17 17 17 17 17 17 17 17 17 17 17 17 17 17 17 17 16 16 16 16 16 16 16 16 16 16 16 16 16 16 17 17 16 16 16 15 15 15 16
14 14 14 14 14 15 15 15 15 15 15 15 15 15 15 15 16 16 16 16 16 16 16 16 16 17 17 17 17 17 17 17 16 17 17 17 17 17 17 16 16 16 16 16 16 16 16 16 16 16 16 16 16 16 16 16 16 16 15 15 15 14 15
13 13 13 13 14 14 14 14 14 14 14 14 14 14 15 15 15 15 15 15 15 16 16 16 16 16 16 16 16 16 16 16 16 17 17 16 16 16 16 16 16 16 17 16 16 16 16 16 17 17 16 16 16 16 16 15 15 15 15 14 14 14 14